CPA882 VHHH-KLAX

Flight info

Callsign CPA882
Flight time 12h 16m
Altitude 35000
Route DALOL V631 ENVAR M750 MELEN/N0486F370 M750 MUKEP Y891 OVSUN/N0483F360 Y893 IGMIS/N0483F370 Y57 POROT Y809 IDLAN Y812 ADNAP OTR5 KALNA DCT 41N160E 41N170E/N0476F390 41N180E 39N170W 36N160W 34N150W/N0472F410 33N145W 33N140W DCT CUNDU DCT ADUMM DCT AUDIA DCT SNAXX RYDRR2
Aircraft A359/H-SDE2E3GHIJ3J4J5LM1ORWXY/LB1D1

Departure

Time 2026-05-04 19:15
Airport Hong Kong International Airport (VHHH)

Arrival

Time 2026-05-05 07:32
Airport Los Angeles International Airport (KLAX)
Time Latitude Longitude Altitude Speed Heading
2026-05-04 17:26 22.31175 113.92772 43 ft 0 kts 295°
2026-05-04 18:51 22.31174 113.92775 70 ft 2 kts 296°
2026-05-04 18:51 22.31161 113.92800 42 ft 4 kts 302°
2026-05-04 18:51 22.31147 113.92824 40 ft 4 kts 294°
2026-05-04 18:52 22.31141 113.92846 39 ft 2 kts 262°
2026-05-04 18:52 22.31145 113.92868 40 ft 4 kts 235°
2026-05-04 18:52 22.31161 113.92884 38 ft 4 kts 202°
2026-05-04 18:52 22.31179 113.92892 41 ft 0 kts 206°
2026-05-04 18:56 22.31175 113.92890 43 ft 3 kts 206°
2026-05-04 18:56 22.31124 113.92863 43 ft 13 kts 206°
2026-05-04 18:57 22.31026 113.92811 43 ft 16 kts 206°
2026-05-04 18:57 22.30923 113.92757 43 ft 16 kts 206°
2026-05-04 18:57 22.30839 113.92692 43 ft 14 kts 245°
2026-05-04 18:57 22.30803 113.92593 43 ft 14 kts 252°
2026-05-04 18:58 22.30772 113.92489 43 ft 15 kts 252°
2026-05-04 18:58 22.30735 113.92383 43 ft 15 kts 249°
2026-05-04 18:58 22.30697 113.92272 43 ft 16 kts 251°
2026-05-04 18:58 22.30665 113.92163 43 ft 15 kts 251°
2026-05-04 18:59 22.30630 113.92055 43 ft 15 kts 251°
2026-05-04 18:59 22.30595 113.91946 43 ft 15 kts 251°
2026-05-04 18:59 22.30561 113.91839 43 ft 15 kts 251°
2026-05-04 18:59 22.30525 113.91727 43 ft 16 kts 251°
2026-05-04 19:00 22.30488 113.91610 43 ft 17 kts 251°
2026-05-04 19:00 22.30448 113.91490 43 ft 17 kts 251°
2026-05-04 19:00 22.30407 113.91363 43 ft 18 kts 251°
2026-05-04 19:00 22.30365 113.91233 43 ft 19 kts 251°
2026-05-04 19:01 22.30323 113.91100 43 ft 19 kts 251°
2026-05-04 19:01 22.30279 113.90965 43 ft 19 kts 251°
2026-05-04 19:01 22.30234 113.90825 43 ft 20 kts 251°
2026-05-04 19:01 22.30187 113.90681 43 ft 20 kts 251°
2026-05-04 19:02 22.30141 113.90536 43 ft 21 kts 251°
2026-05-04 19:02 22.30092 113.90386 43 ft 21 kts 251°
2026-05-04 19:02 22.30043 113.90234 43 ft 22 kts 251°
2026-05-04 19:02 22.29994 113.90081 43 ft 22 kts 251°
2026-05-04 19:03 22.29943 113.89923 43 ft 22 kts 251°
2026-05-04 19:03 22.29887 113.89767 43 ft 22 kts 237°
2026-05-04 19:03 22.29768 113.89757 43 ft 14 kts 162°
2026-05-04 19:03 22.29725 113.89772 43 ft 0 kts 162°
2026-05-04 19:11 22.29687 113.89785 43 ft 12 kts 158°
2026-05-04 19:11 22.29647 113.89865 43 ft 13 kts 81°
2026-05-04 19:11 22.29661 113.89922 43 ft 0 kts 73°
2026-05-04 19:14 22.29677 113.89979 43 ft 28 kts 73°
2026-05-04 19:15 22.29807 113.90385 41 ft 85 kts 70°
2026-05-04 19:15 22.30062 113.91172 45 ft 134 kts 71°
2026-05-04 19:15 22.30426 113.92262 114 ft 171 kts 72°
2026-05-04 19:15 22.30829 113.93462 675 ft 167 kts 72°
2026-05-04 19:16 22.31176 113.94648 1313 ft 165 kts 74°
2026-05-04 19:16 22.31554 113.95876 1598 ft 180 kts 72°
2026-05-04 19:16 22.31986 113.97202 1828 ft 192 kts 72°
2026-05-04 19:16 22.32438 113.98582 2086 ft 204 kts 72°
2026-05-04 19:17 22.32919 114.00059 2466 ft 211 kts 72°
2026-05-04 19:17 22.33408 114.01575 2895 ft 217 kts 73°
2026-05-04 19:17 22.33800 114.03171 3250 ft 225 kts 84°
2026-05-04 19:17 22.33745 114.04876 3633 ft 229 kts 104°
2026-05-04 19:18 22.33140 114.06463 4051 ft 232 kts 124°
2026-05-04 19:18 22.32051 114.07742 4467 ft 235 kts 144°
2026-05-04 19:18 22.30584 114.08546 4884 ft 237 kts 165°
2026-05-04 19:18 22.28957 114.08779 5346 ft 236 kts 180°
2026-05-04 19:19 22.27318 114.08769 5864 ft 236 kts 183°
2026-05-04 19:19 22.25679 114.08739 6338 ft 238 kts 182°
2026-05-04 19:19 22.24000 114.08713 6785 ft 242 kts 182°
2026-05-04 19:19 22.22302 114.08687 6994 ft 254 kts 183°
2026-05-04 19:20 22.20481 114.08655 7253 ft 265 kts 182°
2026-05-04 19:20 22.18627 114.08649 7683 ft 270 kts 179°
2026-05-04 19:20 22.16781 114.09071 8145 ft 277 kts 158°
2026-05-04 19:20 22.15263 114.10364 8562 ft 285 kts 129°
2026-05-04 19:21 22.14233 114.12230 8998 ft 291 kts 120°
2026-05-04 19:21 22.13334 114.14193 9494 ft 293 kts 119°
2026-05-04 19:21 22.12425 114.16199 9969 ft 296 kts 119°
2026-05-04 19:21 22.11501 114.18207 10266 ft 305 kts 119°
2026-05-04 19:22 22.10532 114.20277 10468 ft 317 kts 120°
2026-05-04 19:22 22.09513 114.22422 10664 ft 328 kts 120°
2026-05-04 19:22 22.08444 114.24641 10880 ft 338 kts 122°
2026-05-04 19:22 22.07013 114.26697 11033 ft 344 kts 140°
2026-05-04 19:23 22.05150 114.28322 11241 ft 351 kts 147°
2026-05-04 19:23 22.03145 114.29883 11442 ft 360 kts 147°
2026-05-04 19:23 22.01075 114.31482 11690 ft 368 kts 147°
2026-05-04 19:23 21.99001 114.33098 12014 ft 372 kts 147°
2026-05-04 19:24 21.96941 114.34714 12360 ft 375 kts 147°
2026-05-04 19:24 21.94802 114.36395 12735 ft 378 kts 147°
2026-05-04 19:24 21.92641 114.38095 13084 ft 381 kts 147°
2026-05-04 19:24 21.90498 114.39779 13446 ft 384 kts 147°
2026-05-04 19:25 21.88353 114.41466 13780 ft 387 kts 147°
2026-05-04 19:25 21.86235 114.43321 14085 ft 393 kts 138°
2026-05-04 19:25 21.84596 114.45691 14353 ft 403 kts 120°
2026-05-04 19:25 21.83601 114.48546 14668 ft 409 kts 109°
2026-05-04 19:26 21.82846 114.51488 14970 ft 412 kts 107°
2026-05-04 19:26 21.82107 114.54485 15286 ft 415 kts 107°
2026-05-04 19:26 21.81357 114.57483 15618 ft 417 kts 107°
2026-05-04 19:26 21.80584 114.60527 15908 ft 420 kts 107°
2026-05-04 19:27 21.79811 114.63542 16221 ft 422 kts 108°
2026-05-04 19:27 21.79021 114.66611 16517 ft 425 kts 108°
2026-05-04 19:27 21.78225 114.69693 16807 ft 428 kts 108°
2026-05-04 19:27 21.77433 114.72748 17112 ft 430 kts 108°
2026-05-04 19:28 21.76621 114.75878 17413 ft 433 kts 108°
2026-05-04 19:28 21.75807 114.79013 17698 ft 436 kts 108°
2026-05-04 19:28 21.74988 114.82177 17985 ft 438 kts 107°
2026-05-04 19:28 21.74409 114.85399 18258 ft 443 kts 98°
2026-05-04 19:29 21.74187 114.88689 18497 ft 446 kts 93°
2026-05-04 19:29 21.74139 114.92030 18766 ft 449 kts 91°
2026-05-04 19:29 21.74177 114.95416 19022 ft 451 kts 90°
2026-05-04 19:29 21.74241 114.98782 19270 ft 453 kts 90°
2026-05-04 19:30 21.74299 115.02181 19520 ft 455 kts 90°
2026-05-04 19:30 21.74338 115.05583 19770 ft 457 kts 90°
2026-05-04 19:30 21.74360 115.09026 20014 ft 459 kts 91°
2026-05-04 19:30 21.74368 115.12436 20252 ft 461 kts 91°
2026-05-04 19:31 21.74367 115.15907 20494 ft 463 kts 91°
2026-05-04 19:31 21.74360 115.19374 20723 ft 465 kts 91°
2026-05-04 19:31 21.74351 115.22882 20965 ft 467 kts 91°
2026-05-04 19:31 21.74343 115.26331 21204 ft 468 kts 91°
2026-05-04 19:32 21.74334 115.29845 21409 ft 471 kts 91°
2026-05-04 19:32 21.74325 115.33372 21641 ft 473 kts 91°
2026-05-04 19:32 21.74318 115.36930 21886 ft 474 kts 91°
2026-05-04 19:32 21.74312 115.40475 22091 ft 476 kts 91°
2026-05-04 19:33 21.74303 115.44037 22308 ft 478 kts 91°
2026-05-04 19:33 21.74291 115.47618 22527 ft 480 kts 91°
2026-05-04 19:33 21.74280 115.51199 22739 ft 481 kts 91°
2026-05-04 19:33 21.74269 115.54822 22961 ft 483 kts 91°
2026-05-04 19:34 21.74254 115.58463 23173 ft 485 kts 91°
2026-05-04 19:34 21.74238 115.62078 23388 ft 486 kts 91°
2026-05-04 19:34 21.74225 115.65707 23591 ft 488 kts 91°
2026-05-04 19:34 21.74213 115.69363 23762 ft 489 kts 91°
2026-05-04 19:35 21.74199 115.73021 23932 ft 491 kts 91°
2026-05-04 19:35 21.74181 115.76712 24108 ft 492 kts 91°
2026-05-04 19:35 21.74161 115.80392 24275 ft 494 kts 91°
2026-05-04 19:35 21.74140 115.84111 24446 ft 495 kts 91°
2026-05-04 19:36 21.74119 115.87821 24620 ft 496 kts 91°
2026-05-04 19:36 21.74099 115.91529 24792 ft 498 kts 91°
2026-05-04 19:36 21.74078 115.95227 24961 ft 499 kts 91°
2026-05-04 19:36 21.74057 115.98966 25128 ft 500 kts 92°
2026-05-04 19:37 21.74035 116.02733 25295 ft 502 kts 92°
2026-05-04 19:37 21.74020 116.05226 25399 ft 503 kts 92°
2026-05-04 19:37 21.73996 116.08977 25560 ft 504 kts 92°
2026-05-04 19:37 21.73971 116.12797 25734 ft 505 kts 92°
2026-05-04 19:38 21.73946 116.16554 25894 ft 507 kts 92°
2026-05-04 19:38 21.73920 116.20332 26046 ft 508 kts 92°
2026-05-04 19:38 21.73892 116.24167 26216 ft 510 kts 92°
2026-05-04 19:38 21.73864 116.27946 26381 ft 511 kts 92°
2026-05-04 19:39 21.73834 116.31813 26551 ft 513 kts 92°
2026-05-04 19:39 21.73804 116.35631 26725 ft 514 kts 92°
2026-05-04 19:39 21.73772 116.39474 26882 ft 516 kts 92°
2026-05-04 19:39 21.73740 116.43384 27040 ft 517 kts 92°
2026-05-04 19:40 21.73707 116.47226 27223 ft 518 kts 92°
2026-05-04 19:40 21.73673 116.51090 27392 ft 520 kts 92°
2026-05-04 19:40 21.73637 116.55020 27563 ft 521 kts 92°
2026-05-04 19:40 21.73601 116.58892 27718 ft 523 kts 92°
2026-05-04 19:41 21.73564 116.62799 27902 ft 524 kts 92°
2026-05-04 19:41 21.73525 116.66742 28064 ft 526 kts 92°
2026-05-04 19:41 21.73486 116.70658 28236 ft 527 kts 92°
2026-05-04 19:41 21.73497 116.74631 28384 ft 529 kts 88°
2026-05-04 19:42 21.73912 116.78563 28534 ft 532 kts 79°
2026-05-04 19:42 21.74872 116.82439 28683 ft 533 kts 71°
2026-05-04 19:42 21.76086 116.86188 28836 ft 535 kts 69°
2026-05-04 19:42 21.77407 116.89919 28989 ft 536 kts 68°
2026-05-04 19:43 21.78793 116.93673 29132 ft 538 kts 67°
2026-05-04 19:43 21.80183 116.97398 29281 ft 539 kts 67°
2026-05-04 19:43 21.81570 117.01131 29428 ft 541 kts 68°
2026-05-04 19:43 21.82971 117.04937 29564 ft 542 kts 68°
2026-05-04 19:44 21.84344 117.08701 29724 ft 544 kts 68°
2026-05-04 19:44 21.85723 117.12510 29847 ft 546 kts 68°
2026-05-04 19:44 21.87080 117.16272 29998 ft 547 kts 68°
2026-05-04 19:44 21.88459 117.20108 30123 ft 549 kts 68°
2026-05-04 19:45 21.89845 117.23963 30248 ft 550 kts 68°
2026-05-04 19:45 21.91225 117.27807 30387 ft 551 kts 68°
2026-05-04 19:45 21.92601 117.31643 30507 ft 552 kts 68°
2026-05-04 19:45 21.94002 117.35548 30648 ft 553 kts 68°
2026-05-04 19:46 21.95380 117.39392 30786 ft 554 kts 68°
2026-05-04 19:46 21.96759 117.43243 30891 ft 556 kts 68°
2026-05-04 19:46 21.98154 117.47127 31035 ft 557 kts 67°
2026-05-04 19:47 22.01741 117.54546 31247 ft 556 kts 57°
2026-05-04 19:47 22.03729 117.58138 31388 ft 557 kts 56°
2026-05-04 19:47 22.05752 117.61701 31489 ft 558 kts 56°
2026-05-04 19:47 22.07786 117.65249 31592 ft 559 kts 56°
2026-05-04 19:48 22.09824 117.68801 31760 ft 559 kts 56°
2026-05-04 19:48 22.11867 117.72373 31931 ft 559 kts 56°
2026-05-04 19:48 22.13895 117.75933 32081 ft 559 kts 56°
2026-05-04 19:48 22.15942 117.79540 32260 ft 559 kts 56°
2026-05-04 19:49 22.17969 117.83121 32455 ft 558 kts 56°
2026-05-04 19:49 22.19970 117.86661 32616 ft 558 kts 56°
2026-05-04 19:49 22.21984 117.90230 32791 ft 558 kts 56°
2026-05-04 19:49 22.24020 117.93838 32969 ft 558 kts 56°
2026-05-04 19:50 22.26020 117.97385 33147 ft 557 kts 56°
2026-05-04 19:50 22.28037 118.00952 33318 ft 557 kts 55°
2026-05-04 19:50 22.30077 118.04498 33496 ft 557 kts 54°
2026-05-04 19:50 22.32150 118.08053 33658 ft 557 kts 54°
2026-05-04 19:51 22.34215 118.11577 33845 ft 556 kts 54°
2026-05-04 19:51 22.36295 118.15126 34015 ft 556 kts 54°
2026-05-04 19:51 22.38358 118.18651 34183 ft 556 kts 54°
2026-05-04 19:51 22.40415 118.22182 34348 ft 555 kts 54°
2026-05-04 19:52 22.42443 118.25718 34553 ft 554 kts 55°
2026-05-04 19:52 22.44475 118.29299 34734 ft 553 kts 55°
2026-05-04 19:52 22.46467 118.32827 34907 ft 552 kts 55°
2026-05-04 19:53 22.50493 118.39966 35008 ft 558 kts 55°
2026-05-04 19:53 22.54523 118.47108 35003 ft 558 kts 55°
2026-05-04 19:54 22.58585 118.54293 35005 ft 558 kts 55°
2026-05-04 19:54 22.62661 118.61447 35006 ft 558 kts 55°
2026-05-04 19:55 22.66738 118.68597 35006 ft 559 kts 55°
2026-05-04 19:55 22.70802 118.75743 34999 ft 559 kts 55°
2026-05-04 19:56 22.74884 118.82937 35008 ft 559 kts 55°
2026-05-04 19:56 22.78963 118.90136 35003 ft 560 kts 55°
2026-05-04 19:57 22.83024 118.97311 35001 ft 560 kts 55°
2026-05-04 19:57 22.87098 119.04521 34999 ft 560 kts 55°
2026-05-04 19:58 22.91150 119.11701 35002 ft 561 kts 55°
2026-05-04 19:58 22.95228 119.18939 35001 ft 561 kts 55°
2026-05-04 19:59 22.99299 119.26173 34995 ft 561 kts 55°
2026-05-04 19:59 23.03353 119.33387 34999 ft 562 kts 56°
2026-05-04 20:00 23.07426 119.40645 35002 ft 562 kts 56°
2026-05-04 20:00 23.11509 119.47932 34999 ft 562 kts 56°
2026-05-04 20:01 23.15543 119.55141 34997 ft 562 kts 56°
2026-05-04 20:01 23.19609 119.62417 35003 ft 563 kts 56°
2026-05-04 20:02 23.23673 119.69694 34998 ft 563 kts 56°
2026-05-04 20:02 23.27729 119.76966 35001 ft 564 kts 56°
2026-05-04 20:03 23.31794 119.84264 35000 ft 564 kts 56°
2026-05-04 20:03 23.35986 119.91470 34998 ft 561 kts 49°
2026-05-04 20:04 23.41280 119.97638 34996 ft 555 kts 40°
2026-05-04 20:04 23.46858 120.03415 34996 ft 554 kts 38°
2026-05-04 20:05 23.52519 120.09166 34992 ft 555 kts 38°
2026-05-04 20:05 23.58121 120.14899 34999 ft 555 kts 38°
2026-05-04 20:06 23.63738 120.20693 35003 ft 556 kts 38°
2026-05-04 20:06 23.69347 120.26498 35007 ft 556 kts 38°
2026-05-04 20:07 23.74959 120.32312 35005 ft 556 kts 39°
2026-05-04 20:07 23.80587 120.38149 35004 ft 557 kts 39°
2026-05-04 20:08 23.86198 120.43976 35007 ft 557 kts 39°
2026-05-04 20:08 23.91840 120.49845 35011 ft 558 kts 39°
2026-05-04 20:09 23.97438 120.55733 35017 ft 559 kts 39°
2026-05-04 20:09 24.03010 120.61626 35017 ft 559 kts 39°
2026-05-04 20:10 24.08610 120.67548 35024 ft 560 kts 39°
2026-05-04 20:10 24.14228 120.73495 35026 ft 560 kts 39°
2026-05-04 20:11 24.19800 120.79395 35028 ft 561 kts 39°
2026-05-04 20:11 24.25392 120.85327 35028 ft 562 kts 39°
2026-05-04 20:12 24.31015 120.91298 35035 ft 562 kts 39°
2026-05-04 20:12 24.36625 120.97268 35042 ft 562 kts 39°
2026-05-04 20:13 24.42109 121.03419 35049 ft 566 kts 46°
2026-05-04 20:13 24.47145 121.10139 35051 ft 568 kts 47°
2026-05-04 20:14 24.52035 121.16905 35021 ft 569 kts 47°
2026-05-04 20:14 24.56939 121.23716 35052 ft 568 kts 48°
2026-05-04 20:15 24.61869 121.30548 35046 ft 569 kts 47°
2026-05-04 20:15 24.66795 121.37374 35054 ft 569 kts 47°
2026-05-04 20:16 24.71691 121.44160 35044 ft 569 kts 47°
2026-05-04 20:16 24.76621 121.50990 35020 ft 569 kts 48°
2026-05-04 20:17 24.81525 121.57816 35015 ft 570 kts 48°
2026-05-04 20:17 24.85612 121.63525 35041 ft 571 kts 48°
2026-05-04 20:18 24.90545 121.70374 35020 ft 571 kts 47°
2026-05-04 20:18 24.96590 121.78141 35029 ft 569 kts 44°
2026-05-04 20:19 25.00940 121.83592 35051 ft 569 kts 44°
2026-05-04 20:19 25.06119 121.90125 35042 ft 569 kts 45°
2026-05-04 20:20 25.11312 121.96744 35059 ft 570 kts 45°
2026-05-04 20:20 25.16491 122.03404 35058 ft 571 kts 45°
2026-05-04 20:21 25.21641 122.10092 35059 ft 571 kts 45°
2026-05-04 20:21 25.29334 122.20102 35062 ft 571 kts 45°
2026-05-04 20:22 25.34474 122.26792 35061 ft 571 kts 45°
2026-05-04 20:22 25.39630 122.33511 35062 ft 571 kts 45°
2026-05-04 20:23 25.44781 122.40233 35066 ft 571 kts 46°
2026-05-04 20:23 25.49896 122.46918 35071 ft 572 kts 46°
2026-05-04 20:24 25.55041 122.53622 35063 ft 572 kts 45°
2026-05-04 20:24 25.60224 122.60354 35069 ft 572 kts 45°
2026-05-04 20:25 25.65430 122.67121 35077 ft 579 kts 45°
2026-05-04 20:25 25.70670 122.73948 35073 ft 584 kts 46°
2026-05-04 20:26 25.75902 122.80783 35071 ft 585 kts 46°
2026-05-04 20:26 25.81171 122.87678 35076 ft 585 kts 46°
2026-05-04 20:27 25.86426 122.94563 35078 ft 586 kts 46°
2026-05-04 20:27 25.91708 123.01492 35082 ft 586 kts 46°
2026-05-04 20:28 25.96957 123.08394 35081 ft 586 kts 46°
2026-05-04 20:28 26.02232 123.15339 35085 ft 586 kts 46°
2026-05-04 20:29 26.07487 123.22270 35086 ft 587 kts 46°
2026-05-04 20:29 26.12761 123.29235 35087 ft 587 kts 46°
2026-05-04 20:30 26.18000 123.36166 35085 ft 587 kts 46°
2026-05-04 20:30 26.23255 123.43127 35090 ft 587 kts 46°
2026-05-04 20:31 26.28502 123.50089 35096 ft 587 kts 46°
2026-05-04 20:31 26.33750 123.57065 35092 ft 587 kts 46°
2026-05-04 20:32 26.39018 123.64077 35098 ft 587 kts 46°
2026-05-04 20:32 26.44266 123.71073 35103 ft 588 kts 46°
2026-05-04 20:33 26.49514 123.78083 35103 ft 588 kts 46°
2026-05-04 20:33 26.54741 123.85072 35104 ft 588 kts 46°
2026-05-04 20:34 26.59974 123.92081 35103 ft 588 kts 46°
2026-05-04 20:34 26.65232 123.99135 35107 ft 588 kts 46°
2026-05-04 20:35 26.70455 124.06132 35105 ft 588 kts 46°
2026-05-04 20:35 26.75695 124.13143 35106 ft 588 kts 46°
2026-05-04 20:36 26.80958 124.20196 35107 ft 589 kts 46°
2026-05-04 20:36 26.86215 124.27254 35109 ft 589 kts 46°
2026-05-04 20:37 26.91436 124.34278 35111 ft 589 kts 46°
2026-05-04 20:37 26.96695 124.41366 35119 ft 589 kts 46°
2026-05-04 20:38 27.01943 124.48446 35109 ft 590 kts 47°
2026-05-04 20:38 27.07201 124.55547 35114 ft 591 kts 47°
2026-05-04 20:39 27.12437 124.62628 35118 ft 592 kts 47°
2026-05-04 20:39 27.17700 124.69761 35126 ft 592 kts 47°
2026-05-04 20:40 27.22952 124.76890 35119 ft 593 kts 47°
2026-05-04 20:40 27.28183 124.84002 35121 ft 593 kts 47°
2026-05-04 20:41 27.33454 124.91179 35122 ft 594 kts 47°
2026-05-04 20:41 27.38693 124.98325 35126 ft 594 kts 47°
2026-05-04 20:42 27.43988 125.05510 35126 ft 595 kts 47°
2026-05-04 20:42 27.49296 125.12663 35127 ft 595 kts 47°
2026-05-04 20:43 27.54611 125.19831 35128 ft 596 kts 47°
2026-05-04 20:43 27.59898 125.26986 35130 ft 596 kts 47°
2026-05-04 20:44 27.65218 125.34203 35131 ft 596 kts 47°
2026-05-04 20:44 27.70522 125.41410 35130 ft 597 kts 47°
2026-05-04 20:45 27.75835 125.48640 35133 ft 598 kts 47°
2026-05-04 20:45 27.81151 125.55888 35135 ft 598 kts 47°
2026-05-04 20:46 27.86434 125.63102 35135 ft 599 kts 47°
2026-05-04 20:46 27.91738 125.70356 35139 ft 599 kts 47°
2026-05-04 20:47 27.97053 125.77639 35139 ft 599 kts 47°
2026-05-04 20:47 28.02360 125.84925 35144 ft 599 kts 47°
2026-05-04 20:48 28.07667 125.92220 35129 ft 599 kts 47°
2026-05-04 20:48 28.12934 125.99472 35143 ft 600 kts 47°
2026-05-04 20:49 28.18231 126.06781 35146 ft 600 kts 47°
2026-05-04 20:49 28.23556 126.14141 35143 ft 599 kts 47°
2026-05-04 20:50 28.28814 126.21420 35144 ft 600 kts 47°
2026-05-04 20:50 28.34106 126.28758 35141 ft 600 kts 47°
2026-05-04 20:51 28.39402 126.36114 35142 ft 600 kts 47°
2026-05-04 20:51 28.44673 126.43450 35143 ft 600 kts 47°
2026-05-04 20:52 28.49944 126.50797 35146 ft 601 kts 47°
2026-05-04 20:52 28.55233 126.58183 35147 ft 601 kts 47°
2026-05-04 20:53 28.60483 126.65528 35150 ft 601 kts 47°
2026-05-04 20:53 28.65760 126.72923 35147 ft 601 kts 47°
2026-05-04 20:54 28.71037 126.80331 35149 ft 601 kts 47°
2026-05-04 20:54 28.76273 126.87694 35150 ft 601 kts 47°
2026-05-04 20:55 28.81531 126.95101 35151 ft 601 kts 47°
2026-05-04 20:55 28.86792 127.02527 35150 ft 601 kts 47°
2026-05-04 20:56 28.92050 127.09960 35154 ft 602 kts 47°
2026-05-04 20:56 28.97313 127.17414 35149 ft 603 kts 47°
2026-05-04 20:57 29.02566 127.24868 35148 ft 603 kts 47°
2026-05-04 20:57 29.06954 127.31105 35152 ft 603 kts 47°
2026-05-04 20:58 29.13087 127.39837 35150 ft 604 kts 47°
2026-05-04 20:58 29.18325 127.47311 35151 ft 604 kts 47°
2026-05-04 20:59 29.22702 127.53565 35157 ft 605 kts 47°
2026-05-04 20:59 29.27972 127.61109 35153 ft 605 kts 47°
2026-05-04 21:00 29.34090 127.69884 35147 ft 606 kts 47°
2026-05-04 21:00 29.38478 127.76190 35148 ft 607 kts 47°
2026-05-04 21:01 29.43741 127.83764 35148 ft 607 kts 47°
2026-05-04 21:01 29.49003 127.91353 35154 ft 607 kts 47°
2026-05-04 21:02 29.54277 127.98971 35153 ft 608 kts 47°
2026-05-04 21:02 29.59496 128.06517 35154 ft 609 kts 47°
2026-05-04 21:03 29.64774 128.14161 35158 ft 609 kts 47°
2026-05-04 21:03 29.70041 128.21804 35152 ft 610 kts 47°
2026-05-04 21:04 29.75311 128.29467 35153 ft 610 kts 47°
2026-05-04 21:04 29.80586 128.37151 35153 ft 610 kts 47°
2026-05-04 21:05 29.85817 128.44785 35152 ft 611 kts 47°
2026-05-04 21:05 29.91100 128.52509 35154 ft 611 kts 47°
2026-05-04 21:06 29.96361 128.60217 35154 ft 611 kts 47°
2026-05-04 21:06 30.01598 128.67905 35152 ft 611 kts 47°
2026-05-04 21:07 30.06877 128.75667 35153 ft 612 kts 47°
2026-05-04 21:07 30.12121 128.83393 35155 ft 612 kts 47°
2026-05-04 21:08 30.17344 128.91105 35155 ft 612 kts 47°
2026-05-04 21:08 30.22598 128.98877 35154 ft 612 kts 47°
2026-05-04 21:09 30.27834 129.06638 35153 ft 612 kts 47°
2026-05-04 21:09 30.33058 129.14396 35151 ft 612 kts 47°
2026-05-04 21:10 30.38299 129.22195 35151 ft 612 kts 47°
2026-05-04 21:10 30.43494 129.29939 35150 ft 612 kts 47°
2026-05-04 21:11 30.48725 129.37753 35152 ft 611 kts 47°
2026-05-04 21:11 30.53912 129.45516 35154 ft 611 kts 47°
2026-05-04 21:12 30.59125 129.53333 35153 ft 611 kts 47°
2026-05-04 21:12 30.64337 129.61166 35143 ft 611 kts 48°
2026-05-04 21:13 30.69520 129.68970 35146 ft 610 kts 48°
2026-05-04 21:13 30.74716 129.76807 35148 ft 610 kts 48°
2026-05-04 21:14 30.79889 129.84627 35156 ft 611 kts 48°
2026-05-04 21:14 30.84926 129.92569 35158 ft 614 kts 53°
2026-05-04 21:15 30.89517 130.00934 35155 ft 615 kts 54°
2026-05-04 21:15 30.94023 130.09431 35166 ft 615 kts 55°
2026-05-04 21:16 30.98482 130.17905 35161 ft 615 kts 55°
2026-05-04 21:16 31.02963 130.26403 35159 ft 615 kts 55°
2026-05-04 21:17 31.07465 130.34932 35162 ft 615 kts 55°
2026-05-04 21:17 31.11930 130.43402 35164 ft 615 kts 55°
2026-05-04 21:18 31.16401 130.51906 35162 ft 615 kts 55°
2026-05-04 21:18 31.20873 130.60434 35168 ft 616 kts 55°
2026-05-04 21:19 31.25362 130.69018 35168 ft 616 kts 55°
2026-05-04 21:19 31.29794 130.77503 35167 ft 616 kts 55°
2026-05-04 21:20 31.34254 130.86057 35170 ft 616 kts 55°
2026-05-04 21:20 31.38713 130.94632 35175 ft 616 kts 55°
2026-05-04 21:21 31.43162 131.03213 35174 ft 616 kts 55°
2026-05-04 21:21 31.47606 131.11803 35173 ft 617 kts 56°
2026-05-04 21:22 31.52054 131.20414 35176 ft 617 kts 56°
2026-05-04 21:22 31.56496 131.29033 35174 ft 617 kts 56°
2026-05-04 21:23 31.60945 131.37691 35174 ft 617 kts 56°
2026-05-04 21:23 31.65336 131.46265 35174 ft 617 kts 56°
2026-05-04 21:24 31.69766 131.54939 35174 ft 617 kts 56°
2026-05-04 21:24 31.74170 131.63569 35178 ft 617 kts 56°
2026-05-04 21:25 31.78582 131.72235 35172 ft 617 kts 56°
2026-05-04 21:25 31.82977 131.80890 35172 ft 617 kts 56°
2026-05-04 21:26 31.87376 131.89573 35168 ft 617 kts 56°
2026-05-04 21:26 31.91767 131.98262 35166 ft 617 kts 56°
2026-05-04 21:27 31.96132 132.06919 35169 ft 617 kts 56°
2026-05-04 21:27 32.00527 132.15654 35166 ft 617 kts 56°
2026-05-04 21:28 32.04908 132.24382 35166 ft 618 kts 56°
2026-05-04 21:28 32.09271 132.33095 35168 ft 618 kts 56°
2026-05-04 21:29 32.13576 132.41821 35166 ft 619 kts 58°
2026-05-04 21:29 32.17530 132.50899 35157 ft 620 kts 62°
2026-05-04 21:30 32.21268 132.60019 35162 ft 620 kts 62°
2026-05-04 21:30 32.25063 132.69202 35166 ft 620 kts 62°
2026-05-04 21:31 32.30812 132.82878 35165 ft 620 kts 62°
2026-05-04 21:32 32.34641 132.91971 35164 ft 620 kts 62°
2026-05-04 21:32 32.38484 133.01136 35167 ft 620 kts 62°
2026-05-04 21:33 32.42300 133.10272 35165 ft 620 kts 62°
2026-05-04 21:33 32.46096 133.19385 35165 ft 620 kts 62°
2026-05-04 21:34 32.49906 133.28553 35162 ft 620 kts 62°
2026-05-04 21:34 32.53723 133.37764 35166 ft 620 kts 62°
2026-05-04 21:35 32.57504 133.46910 35168 ft 620 kts 62°
2026-05-04 21:35 32.61292 133.56095 35164 ft 619 kts 62°
2026-05-04 21:36 32.65076 133.65293 35162 ft 619 kts 63°
2026-05-04 21:36 32.68832 133.74448 35168 ft 619 kts 63°
2026-05-04 21:37 32.72603 133.83662 35171 ft 619 kts 63°
2026-05-04 21:37 32.76347 133.92834 35169 ft 619 kts 63°
2026-05-04 21:38 32.80104 134.02062 35172 ft 619 kts 63°
2026-05-04 21:38 32.83276 134.11576 35167 ft 618 kts 72°
2026-05-04 21:39 32.85821 134.21310 35169 ft 618 kts 74°
2026-05-04 21:39 32.87832 134.29492 35177 ft 618 kts 75°
2026-05-04 21:40 32.90617 134.40926 35178 ft 618 kts 75°
2026-05-04 21:40 32.92626 134.49103 35175 ft 618 kts 75°
2026-05-04 21:41 32.95050 134.58934 35179 ft 618 kts 75°
2026-05-04 21:41 32.97476 134.68796 35177 ft 618 kts 75°
2026-05-04 21:42 32.99782 134.78660 35179 ft 617 kts 82°
2026-05-04 21:42 33.01122 134.88692 35181 ft 615 kts 85°
2026-05-04 21:43 33.02235 134.98801 35179 ft 614 kts 86°
2026-05-04 21:43 33.03282 135.08909 35179 ft 614 kts 86°
2026-05-04 21:44 33.04335 135.18965 35181 ft 613 kts 86°
2026-05-04 21:44 33.05406 135.29060 35180 ft 612 kts 86°
2026-05-04 21:45 33.06469 135.39094 35175 ft 612 kts 86°
2026-05-04 21:45 33.07530 135.49197 35176 ft 612 kts 86°
2026-05-04 21:46 33.08575 135.59257 35179 ft 612 kts 86°
2026-05-04 21:46 33.09612 135.69314 35171 ft 612 kts 86°
2026-05-04 21:47 33.10642 135.79393 35168 ft 612 kts 86°
2026-05-04 21:47 33.11663 135.89466 35165 ft 612 kts 87°
2026-05-04 21:48 33.12677 135.99542 35163 ft 611 kts 87°
2026-05-04 21:48 33.13680 136.09601 35168 ft 611 kts 87°
2026-05-04 21:49 33.14675 136.19665 35175 ft 611 kts 87°
2026-05-04 21:49 33.15662 136.29735 35171 ft 612 kts 87°
2026-05-04 21:50 33.16651 136.39900 35170 ft 612 kts 87°
2026-05-04 21:50 33.17621 136.49963 35174 ft 613 kts 87°
2026-05-04 21:51 33.18588 136.60083 35173 ft 614 kts 87°
2026-05-04 21:51 33.19548 136.70224 35174 ft 614 kts 87°
2026-05-04 21:52 33.20493 136.80288 35170 ft 614 kts 87°
2026-05-04 21:52 33.21440 136.90455 35169 ft 613 kts 87°
2026-05-04 21:53 33.22369 137.00527 35162 ft 613 kts 87°
2026-05-04 21:53 33.23585 137.10615 35168 ft 616 kts 78°
2026-05-04 21:54 33.25842 137.20525 35166 ft 617 kts 75°
2026-05-04 21:54 33.28306 137.30328 35164 ft 617 kts 74°
2026-05-04 21:55 33.30807 137.40153 35162 ft 617 kts 75°
2026-05-04 21:55 33.33275 137.50010 35159 ft 618 kts 75°
2026-05-04 21:56 33.35715 137.59883 35156 ft 618 kts 75°
2026-05-04 21:56 33.38141 137.69757 35151 ft 619 kts 75°
2026-05-04 21:57 33.40559 137.79630 35147 ft 620 kts 75°
2026-05-04 21:57 33.43106 137.89545 35142 ft 622 kts 68°
2026-05-04 21:58 33.47091 137.98644 35143 ft 623 kts 58°
2026-05-04 21:58 33.51601 138.07534 35142 ft 623 kts 56°
2026-05-04 21:59 33.56223 138.16359 35144 ft 624 kts 56°
2026-05-04 21:59 33.60774 138.25137 35145 ft 624 kts 56°
2026-05-04 22:00 33.65337 138.34057 35125 ft 624 kts 57°
2026-05-04 22:00 33.69840 138.42916 35144 ft 624 kts 57°
2026-05-04 22:01 33.74364 138.51833 35146 ft 624 kts 57°
2026-05-04 22:01 33.78894 138.60772 35136 ft 624 kts 57°
2026-05-04 22:02 33.83375 138.69631 35133 ft 624 kts 57°
2026-05-04 22:02 33.87879 138.78557 35152 ft 623 kts 57°
2026-05-04 22:03 33.92379 138.87499 35135 ft 624 kts 57°
2026-05-04 22:03 33.96879 138.96465 35136 ft 624 kts 57°
2026-05-04 22:04 34.01369 139.05435 35137 ft 624 kts 57°
2026-05-04 22:04 34.05843 139.14392 35132 ft 624 kts 57°
2026-05-04 22:05 34.10296 139.23332 35139 ft 624 kts 57°
2026-05-04 22:05 34.14770 139.32335 35149 ft 624 kts 58°
2026-05-04 22:06 34.19229 139.41327 35157 ft 624 kts 58°
2026-05-04 22:06 34.23664 139.50294 35136 ft 624 kts 58°
2026-05-04 22:07 34.28111 139.59308 35142 ft 625 kts 58°
2026-05-04 22:07 34.32564 139.68358 35145 ft 625 kts 58°
2026-05-04 22:08 34.37013 139.77422 35145 ft 625 kts 58°
2026-05-04 22:08 34.41428 139.86441 35145 ft 625 kts 58°
2026-05-04 22:09 34.45859 139.95516 35155 ft 626 kts 58°
2026-05-04 22:09 34.50311 140.04658 35150 ft 626 kts 58°
2026-05-04 22:10 34.54702 140.13696 35148 ft 626 kts 59°
2026-05-04 22:10 34.59117 140.22809 35159 ft 626 kts 59°
2026-05-04 22:11 34.63523 140.31927 35157 ft 626 kts 59°
2026-05-04 22:11 34.67898 140.41002 35159 ft 626 kts 59°
2026-05-04 22:12 34.72269 140.50201 35153 ft 626 kts 60°
2026-05-04 22:12 34.76524 140.59459 35162 ft 626 kts 60°
2026-05-04 22:13 34.80724 140.68681 35164 ft 626 kts 60°
2026-05-04 22:13 34.84976 140.78002 35159 ft 626 kts 60°
2026-05-04 22:14 34.89188 140.87226 35164 ft 626 kts 60°
2026-05-04 22:14 34.93409 140.96488 35162 ft 625 kts 60°
2026-05-04 22:15 34.97632 141.05782 35162 ft 625 kts 60°
2026-05-04 22:15 35.01819 141.15027 35159 ft 625 kts 61°
2026-05-04 22:16 35.06030 141.24348 35161 ft 624 kts 61°
2026-05-04 22:16 35.10219 141.33647 35161 ft 624 kts 61°
2026-05-04 22:17 35.14374 141.42893 35162 ft 624 kts 61°
2026-05-04 22:17 35.18540 141.52191 35159 ft 623 kts 61°
2026-05-04 22:18 35.22689 141.61476 35164 ft 623 kts 61°
2026-05-04 22:18 35.26853 141.70823 35161 ft 623 kts 61°
2026-05-04 22:19 35.30999 141.80152 35161 ft 622 kts 62°
2026-05-04 22:19 35.35108 141.89422 35157 ft 622 kts 62°
2026-05-04 22:20 35.39243 141.98780 35153 ft 622 kts 62°
2026-05-04 22:20 35.43332 142.08057 35157 ft 621 kts 62°
2026-05-04 22:21 35.46747 142.15826 35159 ft 621 kts 62°
2026-05-04 22:21 35.50846 142.25173 35149 ft 621 kts 62°
2026-05-04 22:22 35.54941 142.34537 35152 ft 620 kts 62°
2026-05-04 22:22 35.58992 142.43826 35147 ft 620 kts 62°
2026-05-04 22:23 35.63075 142.53215 35148 ft 620 kts 62°
2026-05-04 22:23 35.67109 142.62518 35148 ft 619 kts 62°
2026-05-04 22:24 35.71168 142.71904 35147 ft 619 kts 62°
2026-05-04 22:24 35.75183 142.81213 35141 ft 618 kts 62°
2026-05-04 22:25 35.79225 142.90612 35146 ft 617 kts 62°
2026-05-04 22:25 35.83209 142.99904 35143 ft 617 kts 63°
2026-05-04 22:26 35.87214 143.09271 35142 ft 616 kts 63°
2026-05-04 22:26 35.91192 143.18675 35132 ft 615 kts 66°
2026-05-04 22:26 35.92691 143.23586 35139 ft 611 kts 77°
2026-05-04 22:27 35.93573 143.28673 35138 ft 607 kts 84°
2026-05-04 22:27 35.94818 143.38927 35133 ft 605 kts 87°
2026-05-04 22:28 35.95803 143.49253 35134 ft 604 kts 88°
2026-05-04 22:28 35.96780 143.59586 35135 ft 604 kts 87°
2026-05-04 22:29 35.97795 143.69857 35125 ft 604 kts 87°
2026-05-04 22:29 35.98308 143.74958 35372 ft 604 kts 88°
2026-05-04 22:29 35.98834 143.80134 35203 ft 613 kts 89°
2026-05-04 22:30 35.99886 143.90707 35131 ft 623 kts 89°
2026-05-04 22:30 36.00968 144.01334 35117 ft 628 kts 85°
2026-05-04 22:30 36.02079 144.06607 35128 ft 635 kts 72°
2026-05-04 22:31 36.03975 144.11566 35126 ft 637 kts 58°
2026-05-04 22:31 36.09427 144.20069 35127 ft 635 kts 45°
2026-05-04 22:32 36.15537 144.27958 35135 ft 634 kts 42°
2026-05-04 22:32 36.21751 144.35746 35120 ft 634 kts 43°
2026-05-04 22:33 36.27866 144.43613 35116 ft 635 kts 44°
2026-05-04 22:33 36.33923 144.51577 35114 ft 636 kts 44°
2026-05-04 22:34 36.39978 144.59591 35106 ft 636 kts 44°
2026-05-04 22:34 36.46034 144.67609 35101 ft 636 kts 44°
2026-05-04 22:35 36.52116 144.75666 35097 ft 637 kts 44°
2026-05-04 22:35 36.58143 144.83665 35095 ft 637 kts 44°
2026-05-04 22:36 36.64222 144.91756 35094 ft 637 kts 44°
2026-05-04 22:36 36.70268 144.99822 35090 ft 638 kts 45°
2026-05-04 22:37 36.76300 145.07890 35084 ft 638 kts 45°
2026-05-04 22:37 36.82358 145.16013 35082 ft 639 kts 45°
2026-05-04 22:38 36.88413 145.24154 35077 ft 639 kts 45°
2026-05-04 22:38 36.94465 145.32310 35072 ft 639 kts 45°
2026-05-04 22:39 37.00502 145.40466 35071 ft 639 kts 45°
2026-05-04 22:39 37.06555 145.48665 35068 ft 640 kts 45°
2026-05-04 22:40 37.12563 145.56823 35062 ft 640 kts 45°
2026-05-04 22:40 37.18553 145.65049 35055 ft 641 kts 50°
2026-05-04 22:41 37.23648 145.74269 35057 ft 642 kts 57°
2026-05-04 22:41 37.28431 145.83740 35058 ft 642 kts 59°
2026-05-04 22:42 37.33096 145.93253 35051 ft 641 kts 59°
2026-05-04 22:42 37.37808 146.02849 35050 ft 641 kts 59°
2026-05-04 22:43 37.42485 146.12319 35045 ft 641 kts 59°
2026-05-04 22:43 37.47205 146.21869 35041 ft 640 kts 59°
2026-05-04 22:44 37.51881 146.31363 35038 ft 640 kts 59°
2026-05-04 22:44 37.56575 146.40930 35034 ft 639 kts 59°
2026-05-04 22:45 37.61247 146.50483 35033 ft 639 kts 59°
2026-05-04 22:45 37.68211 146.64773 35029 ft 639 kts 59°
2026-05-04 22:46 37.72858 146.74341 35021 ft 639 kts 59°
2026-05-04 22:46 37.77509 146.83947 35017 ft 639 kts 59°
2026-05-04 22:47 37.82122 146.93501 35012 ft 639 kts 60°
2026-05-04 22:47 37.86773 147.03164 35008 ft 639 kts 60°
2026-05-04 22:48 37.91371 147.12742 35007 ft 639 kts 60°
2026-05-04 22:48 37.95985 147.22384 35005 ft 638 kts 60°
2026-05-04 22:49 38.00565 147.31984 34996 ft 638 kts 60°
2026-05-04 22:49 38.05144 147.41611 34993 ft 638 kts 60°
2026-05-04 22:50 38.09738 147.51297 34990 ft 638 kts 60°
2026-05-04 22:50 38.14299 147.60941 34985 ft 637 kts 60°
2026-05-04 22:51 38.18835 147.70562 34980 ft 637 kts 60°
2026-05-04 22:51 38.23391 147.80254 34977 ft 637 kts 60°
2026-05-04 22:52 38.27932 147.89942 34973 ft 636 kts 60°
2026-05-04 22:52 38.32440 147.99590 34969 ft 636 kts 60°
2026-05-04 22:53 38.36963 148.09299 34964 ft 635 kts 61°
2026-05-04 22:53 38.41451 148.18963 34961 ft 635 kts 61°
2026-05-04 22:54 38.45952 148.28683 34956 ft 635 kts 61°
2026-05-04 22:54 38.50412 148.38342 34955 ft 635 kts 61°
2026-05-04 22:55 38.54909 148.48115 34949 ft 635 kts 61°
2026-05-04 22:55 38.59352 148.57798 34945 ft 634 kts 61°
2026-05-04 22:56 38.63810 148.67543 34938 ft 634 kts 61°
2026-05-04 22:56 38.68255 148.77291 34932 ft 634 kts 62°
2026-05-04 22:57 38.72705 148.87079 34930 ft 634 kts 62°
2026-05-04 22:57 38.77106 148.96788 34927 ft 634 kts 62°
2026-05-04 22:58 38.81534 149.06588 34925 ft 633 kts 62°
2026-05-04 22:58 38.85932 149.16352 34917 ft 633 kts 62°
2026-05-04 22:59 38.90337 149.26159 34913 ft 633 kts 62°
2026-05-04 22:59 38.94734 149.35982 34907 ft 634 kts 62°
2026-05-04 23:00 38.99122 149.45813 34903 ft 633 kts 62°
2026-05-04 23:00 39.03490 149.55631 34901 ft 633 kts 62°
2026-05-04 23:01 39.07868 149.65500 34898 ft 633 kts 62°
2026-05-04 23:01 39.12224 149.75353 34898 ft 633 kts 62°
2026-05-04 23:02 39.15483 149.83742 34891 ft 627 kts 75°
2026-05-04 23:02 39.18231 149.94384 34886 ft 624 kts 78°
2026-05-04 23:03 39.21076 150.06884 34878 ft 623 kts 79°
2026-05-04 23:03 39.23062 150.15856 34876 ft 622 kts 79°
2026-05-04 23:04 39.25451 150.26529 34876 ft 621 kts 79°
2026-05-04 23:04 39.27869 150.37236 34871 ft 620 kts 79°
2026-05-04 23:05 39.30282 150.47933 34870 ft 619 kts 79°
2026-05-04 23:05 39.32667 150.58571 34869 ft 618 kts 79°
2026-05-04 23:06 39.35047 150.69252 34861 ft 617 kts 80°
2026-05-04 23:06 39.37401 150.79872 34859 ft 616 kts 80°
2026-05-04 23:07 39.39761 150.90566 34856 ft 616 kts 80°
2026-05-04 23:07 39.42101 151.01225 34867 ft 616 kts 80°
2026-05-04 23:08 39.44425 151.11854 34860 ft 616 kts 80°
2026-05-04 23:08 39.46752 151.22556 34853 ft 616 kts 80°
2026-05-04 23:09 39.49048 151.33163 34847 ft 616 kts 80°
2026-05-04 23:09 39.51359 151.43888 34857 ft 616 kts 80°
2026-05-04 23:10 39.53644 151.54549 34847 ft 616 kts 80°
2026-05-04 23:10 39.55928 151.65258 34844 ft 615 kts 80°
2026-05-04 23:11 39.58196 151.75941 34845 ft 615 kts 80°
2026-05-04 23:11 39.60458 151.86653 34842 ft 615 kts 80°
2026-05-04 23:12 39.62703 151.97336 34839 ft 614 kts 80°
2026-05-04 23:12 39.64946 152.08063 34839 ft 614 kts 81°
2026-05-04 23:13 39.67159 152.18703 34838 ft 613 kts 81°
2026-05-04 23:13 39.69377 152.29416 34834 ft 613 kts 81°
2026-05-04 23:14 39.71567 152.40055 34838 ft 612 kts 81°
2026-05-04 23:14 39.73768 152.50794 34830 ft 611 kts 81°
2026-05-04 23:15 39.75943 152.61467 34827 ft 611 kts 81°
2026-05-04 23:15 39.78097 152.72087 34822 ft 610 kts 81°
2026-05-04 23:16 39.80264 152.82834 34825 ft 610 kts 81°
2026-05-04 23:16 39.82395 152.93448 34823 ft 610 kts 81°
2026-05-04 23:17 39.84527 153.04126 34817 ft 609 kts 81°
2026-05-04 23:17 39.86648 153.14808 34815 ft 608 kts 81°
2026-05-04 23:18 39.88758 153.25488 34816 ft 608 kts 81°
2026-05-04 23:18 39.90843 153.36091 34815 ft 607 kts 81°
2026-05-04 23:19 39.92928 153.46759 34809 ft 607 kts 81°
2026-05-04 23:19 39.94996 153.57390 34807 ft 606 kts 81°
2026-05-04 23:20 39.97060 153.68063 34809 ft 605 kts 81°
2026-05-04 23:20 39.99112 153.78725 34808 ft 605 kts 81°
2026-05-04 23:21 40.01148 153.89363 34810 ft 604 kts 81°
2026-05-04 23:21 40.03161 153.99939 34806 ft 604 kts 81°
2026-05-04 23:22 40.05183 154.10618 34804 ft 603 kts 81°
2026-05-04 23:22 40.07188 154.21265 34804 ft 602 kts 81°
2026-05-04 23:23 40.09163 154.31813 34803 ft 602 kts 81°
2026-05-04 23:23 40.11149 154.42474 34803 ft 601 kts 81°
2026-05-04 23:24 40.13114 154.53084 34797 ft 601 kts 81°
2026-05-04 23:24 40.15073 154.63717 34801 ft 601 kts 82°
2026-05-04 23:25 40.17012 154.74296 34800 ft 600 kts 82°
2026-05-04 23:25 40.18941 154.84886 34799 ft 600 kts 82°
2026-05-04 23:26 40.20873 154.95552 34794 ft 600 kts 82°
2026-05-04 23:26 40.22785 155.06162 34783 ft 600 kts 82°
2026-05-04 23:27 40.24680 155.16739 34795 ft 599 kts 82°
2026-05-04 23:27 40.26584 155.27430 34792 ft 599 kts 82°
2026-05-04 23:28 40.28466 155.38053 34792 ft 599 kts 82°
2026-05-04 23:28 40.30326 155.48617 34792 ft 598 kts 82°
2026-05-04 23:29 40.32186 155.59239 34792 ft 598 kts 82°
2026-05-04 23:29 40.34040 155.69892 34791 ft 597 kts 82°
2026-05-04 23:30 40.35878 155.80509 34787 ft 596 kts 82°
2026-05-04 23:30 40.37696 155.91078 34787 ft 596 kts 82°
2026-05-04 23:31 40.39503 156.01638 34785 ft 595 kts 82°
2026-05-04 23:31 40.41311 156.12270 34783 ft 595 kts 82°
2026-05-04 23:32 40.43097 156.22835 34778 ft 594 kts 82°
2026-05-04 23:32 40.44876 156.33422 34786 ft 594 kts 82°
2026-05-04 23:33 40.46647 156.44027 34782 ft 593 kts 82°
2026-05-04 23:33 40.48400 156.54581 34787 ft 593 kts 82°
2026-05-04 23:34 40.50154 156.65206 34787 ft 592 kts 82°
2026-05-04 23:34 40.51880 156.75727 34789 ft 591 kts 82°
2026-05-04 23:35 40.53608 156.86326 34790 ft 591 kts 82°
2026-05-04 23:35 40.55312 156.96838 34791 ft 590 kts 82°
2026-05-04 23:36 40.57012 157.07394 34792 ft 589 kts 82°
2026-05-04 23:36 40.58703 157.17954 34789 ft 589 kts 82°
2026-05-04 23:37 40.60376 157.28468 34805 ft 588 kts 82°
2026-05-04 23:37 40.62043 157.39016 34804 ft 588 kts 82°
2026-05-04 23:38 40.63704 157.49585 34796 ft 587 kts 82°
2026-05-04 23:38 40.65341 157.60072 34797 ft 587 kts 83°
2026-05-04 23:39 40.66983 157.70657 34804 ft 587 kts 83°
2026-05-04 23:39 40.68598 157.81132 34799 ft 586 kts 83°
2026-05-04 23:40 40.70219 157.91714 34804 ft 586 kts 83°
2026-05-04 23:40 40.71811 158.02173 34804 ft 586 kts 83°
2026-05-04 23:41 40.73403 158.12699 34803 ft 585 kts 83°
2026-05-04 23:41 40.74989 158.23253 34805 ft 585 kts 83°
2026-05-04 23:42 40.76563 158.33800 34806 ft 585 kts 83°
2026-05-04 23:42 40.78118 158.44288 34809 ft 584 kts 83°
2026-05-04 23:43 40.79671 158.54827 34809 ft 584 kts 83°
2026-05-04 23:43 40.81212 158.65361 34806 ft 584 kts 83°
2026-05-04 23:44 40.82745 158.75909 34807 ft 584 kts 83°
2026-05-04 23:44 40.84006 158.84637 34810 ft 583 kts 83°
2026-05-04 23:45 40.85512 158.95129 34811 ft 583 kts 83°
2026-05-04 23:45 40.87018 159.05691 34811 ft 583 kts 83°
2026-05-04 23:46 40.88516 159.16263 34807 ft 583 kts 83°
2026-05-04 23:46 40.89991 159.26755 34814 ft 583 kts 83°
2026-05-04 23:47 40.91461 159.37277 34812 ft 583 kts 83°
2026-05-04 23:47 40.92923 159.47815 34811 ft 582 kts 83°
2026-05-04 23:48 40.94370 159.58324 34812 ft 582 kts 83°
2026-05-04 23:48 40.95817 159.68899 34814 ft 582 kts 83°
2026-05-04 23:49 40.97240 159.79383 34815 ft 581 kts 83°
2026-05-04 23:49 40.98661 159.89920 34813 ft 580 kts 83°
2026-05-04 23:50 40.99936 160.00496 34822 ft 577 kts 89°
2026-05-04 23:50 41.00523 160.11048 34820 ft 575 kts 90°
2026-05-04 23:51 41.00961 160.21600 34819 ft 575 kts 91°
2026-05-04 23:51 41.01367 160.32169 34820 ft 575 kts 91°
2026-05-04 23:52 41.01779 160.42752 34821 ft 575 kts 90°
2026-05-04 23:52 41.02189 160.53267 34824 ft 575 kts 90°
2026-05-04 23:53 41.02596 160.63849 34822 ft 574 kts 90°
2026-05-04 23:53 41.02992 160.74460 34822 ft 574 kts 90°
2026-05-04 23:54 41.03378 160.85047 34822 ft 574 kts 90°
2026-05-04 23:54 41.03750 160.95556 34831 ft 574 kts 90°
2026-05-04 23:55 41.04114 161.06058 34830 ft 573 kts 90°
2026-05-04 23:56 41.04643 161.21901 34832 ft 572 kts 90°
2026-05-04 23:56 41.04982 161.32405 34836 ft 571 kts 90°
2026-05-04 23:57 41.05310 161.42885 34848 ft 570 kts 90°
2026-05-04 23:57 41.05630 161.53387 34830 ft 570 kts 90°
2026-05-04 23:58 41.05940 161.63905 34841 ft 569 kts 90°
2026-05-04 23:58 41.06241 161.74406 34848 ft 569 kts 90°
2026-05-04 23:59 41.06530 161.84823 34847 ft 569 kts 90°
2026-05-04 23:59 41.06812 161.95364 34842 ft 569 kts 90°
2026-05-05 00:00 41.07083 162.05801 34850 ft 570 kts 90°
2026-05-05 00:00 41.07345 162.16293 34853 ft 570 kts 90°
2026-05-05 00:01 41.07599 162.26824 34852 ft 570 kts 90°
2026-05-05 00:01 41.07841 162.37283 34862 ft 571 kts 91°
2026-05-05 00:02 41.08076 162.47809 34857 ft 570 kts 91°
2026-05-05 00:02 41.08301 162.58321 34859 ft 570 kts 91°
2026-05-05 00:03 41.08515 162.68802 34867 ft 569 kts 91°
2026-05-05 00:03 41.08721 162.79310 34873 ft 569 kts 91°
2026-05-05 00:04 41.08915 162.89726 34869 ft 568 kts 91°
2026-05-05 00:04 41.09101 163.00209 34872 ft 567 kts 91°
2026-05-05 00:05 41.09277 163.10664 34872 ft 566 kts 91°
2026-05-05 00:05 41.09443 163.21106 34880 ft 566 kts 91°
2026-05-05 00:06 41.09599 163.31541 34883 ft 566 kts 91°
2026-05-05 00:06 41.09747 163.41988 34886 ft 567 kts 91°
2026-05-05 00:07 41.09885 163.52435 34891 ft 567 kts 91°
2026-05-05 00:07 41.10013 163.62867 34891 ft 566 kts 91°
2026-05-05 00:08 41.10132 163.73257 34899 ft 565 kts 91°
2026-05-05 00:08 41.10242 163.83724 34905 ft 564 kts 91°
2026-05-05 00:09 41.10341 163.94063 34905 ft 563 kts 91°
2026-05-05 00:09 41.10432 164.04463 34908 ft 563 kts 91°
2026-05-05 00:10 41.10513 164.14881 34909 ft 564 kts 91°
2026-05-05 00:10 41.10584 164.25240 34915 ft 565 kts 91°
2026-05-05 00:11 41.10647 164.35649 34915 ft 566 kts 91°
2026-05-05 00:11 41.10700 164.46119 34922 ft 567 kts 91°
2026-05-05 00:12 41.10745 164.56604 34922 ft 568 kts 91°
2026-05-05 00:12 41.10779 164.67036 34927 ft 569 kts 91°
2026-05-05 00:13 41.10805 164.77555 34933 ft 569 kts 91°
2026-05-05 00:13 41.10820 164.88005 34932 ft 569 kts 91°
2026-05-05 00:14 41.10826 164.98568 34940 ft 570 kts 91°
2026-05-05 00:14 41.10823 165.09032 34944 ft 570 kts 91°
2026-05-05 00:15 41.10809 165.19584 34944 ft 570 kts 91°
2026-05-05 00:15 41.10787 165.30097 34951 ft 570 kts 91°
2026-05-05 00:16 41.10755 165.40610 34955 ft 571 kts 91°
2026-05-05 00:16 41.10713 165.51081 34961 ft 571 kts 91°
2026-05-05 00:17 41.10662 165.61630 34966 ft 572 kts 91°
2026-05-05 00:17 41.10601 165.72176 34970 ft 572 kts 91°
2026-05-05 00:18 41.10530 165.82744 34973 ft 573 kts 91°
2026-05-05 00:18 41.10450 165.93288 34979 ft 573 kts 91°
2026-05-05 00:19 41.10360 166.03824 34986 ft 573 kts 91°
2026-05-05 00:19 41.10260 166.14394 34992 ft 573 kts 91°
2026-05-05 00:20 41.10151 166.24995 34996 ft 573 kts 91°
2026-05-05 00:20 41.10032 166.35538 35001 ft 573 kts 91°
2026-05-05 00:21 41.09903 166.46121 35008 ft 573 kts 91°
2026-05-05 00:21 41.09765 166.56652 35008 ft 573 kts 91°
2026-05-05 00:22 41.09616 166.67264 35019 ft 574 kts 91°
2026-05-05 00:22 41.09459 166.77783 35019 ft 574 kts 91°
2026-05-05 00:23 41.09291 166.88400 35028 ft 574 kts 91°
2026-05-05 00:23 41.09115 166.98923 35033 ft 574 kts 91°
2026-05-05 00:24 41.08928 167.09508 35042 ft 574 kts 91°
2026-05-05 00:24 41.08731 167.20086 35042 ft 574 kts 91°
2026-05-05 00:25 41.08526 167.30637 35045 ft 573 kts 91°
2026-05-05 00:25 41.08311 167.41191 35054 ft 573 kts 91°
2026-05-05 00:26 41.08085 167.51745 35053 ft 573 kts 91°
2026-05-05 00:26 41.07890 167.60552 35063 ft 573 kts 91°
2026-05-05 00:27 41.07606 167.72855 35066 ft 573 kts 91°
2026-05-05 00:27 41.07352 167.83409 35070 ft 573 kts 91°
2026-05-05 00:28 41.07132 167.92254 35067 ft 574 kts 91°
2026-05-05 00:28 41.06861 168.02793 35072 ft 574 kts 91°
2026-05-05 00:29 41.06578 168.13411 35076 ft 574 kts 91°
2026-05-05 00:29 41.06287 168.23961 35077 ft 575 kts 91°
2026-05-05 00:30 41.05986 168.34505 35081 ft 575 kts 91°
2026-05-05 00:30 41.05675 168.45090 35087 ft 575 kts 91°
2026-05-05 00:31 41.05352 168.55728 35094 ft 575 kts 91°
2026-05-05 00:31 41.05022 168.66284 35095 ft 575 kts 91°
2026-05-05 00:32 41.04684 168.76815 35094 ft 575 kts 91°
2026-05-05 00:32 41.04333 168.87416 35099 ft 575 kts 91°
2026-05-05 00:33 41.03973 168.97983 35105 ft 575 kts 91°
2026-05-05 00:33 41.03605 169.08541 35105 ft 575 kts 91°
2026-05-05 00:34 41.03225 169.19150 35107 ft 575 kts 91°
2026-05-05 00:34 41.02838 169.29677 35109 ft 574 kts 91°
2026-05-05 00:35 41.02438 169.40270 35115 ft 574 kts 91°
2026-05-05 00:35 41.02031 169.50838 35114 ft 574 kts 91°
2026-05-05 00:36 41.01613 169.61425 35117 ft 574 kts 91°
2026-05-05 00:36 41.01185 169.71990 35120 ft 574 kts 91°
2026-05-05 00:37 41.00753 169.82460 35125 ft 574 kts 91°
2026-05-05 00:37 41.00307 169.93016 35126 ft 574 kts 91°
2026-05-05 00:38 41.00185 170.03565 35126 ft 571 kts 85°
2026-05-05 00:38 41.00558 170.14066 35125 ft 570 kts 83°
2026-05-05 00:39 41.01014 170.24512 35131 ft 570 kts 83°
2026-05-05 00:39 41.01467 170.35055 35134 ft 570 kts 83°
2026-05-05 00:40 41.01890 170.45487 35141 ft 570 kts 83°
2026-05-05 00:40 41.02300 170.56026 35133 ft 570 kts 83°
2026-05-05 00:41 41.02698 170.66540 35142 ft 570 kts 83°
2026-05-05 00:41 41.03083 170.76968 35140 ft 570 kts 83°
2026-05-05 00:42 41.03465 170.87512 35142 ft 570 kts 83°
2026-05-05 00:42 41.03835 170.98001 35142 ft 570 kts 83°
2026-05-05 00:43 41.04196 171.08512 35140 ft 570 kts 83°
2026-05-05 00:43 41.04546 171.19003 35147 ft 571 kts 83°
2026-05-05 00:44 41.04887 171.29485 35148 ft 571 kts 83°
2026-05-05 00:44 41.05219 171.39998 35148 ft 571 kts 83°
2026-05-05 00:45 41.05543 171.50531 35146 ft 571 kts 83°
2026-05-05 00:45 41.05855 171.61016 35147 ft 571 kts 83°
2026-05-05 00:46 41.06159 171.71548 35150 ft 571 kts 83°
2026-05-05 00:46 41.06453 171.82067 35151 ft 571 kts 83°
2026-05-05 00:47 41.06737 171.92536 35150 ft 572 kts 83°
2026-05-05 00:47 41.07013 172.03109 35150 ft 572 kts 83°
2026-05-05 00:48 41.07278 172.13594 35155 ft 572 kts 83°
2026-05-05 00:48 41.07534 172.24125 35156 ft 572 kts 83°
2026-05-05 00:49 41.07782 172.34712 35156 ft 572 kts 82°
2026-05-05 00:49 41.08018 172.45202 35157 ft 572 kts 82°
2026-05-05 00:50 41.08246 172.55774 35156 ft 573 kts 82°
2026-05-05 00:50 41.08463 172.66300 35156 ft 573 kts 82°
2026-05-05 00:51 41.08672 172.76878 35161 ft 573 kts 82°
2026-05-05 00:51 41.08871 172.87438 35157 ft 574 kts 82°
2026-05-05 00:52 41.09062 172.98045 35160 ft 574 kts 82°
2026-05-05 00:52 41.09241 173.08606 35159 ft 574 kts 82°
2026-05-05 00:53 41.09412 173.19178 35158 ft 575 kts 82°
2026-05-05 00:53 41.09573 173.29814 35162 ft 575 kts 82°
2026-05-05 00:54 41.09725 173.40440 35159 ft 575 kts 82°
2026-05-05 00:54 41.09866 173.51043 35148 ft 576 kts 82°
2026-05-05 00:55 41.09998 173.61620 35156 ft 576 kts 82°
2026-05-05 00:55 41.10120 173.72283 35159 ft 577 kts 82°
2026-05-05 00:56 41.10232 173.82878 35161 ft 577 kts 82°
2026-05-05 00:56 41.10335 173.93547 35161 ft 578 kts 82°
2026-05-05 00:57 41.10429 174.04221 35156 ft 578 kts 82°
2026-05-05 00:57 41.10512 174.14880 35156 ft 578 kts 82°
2026-05-05 00:58 41.10586 174.25468 35157 ft 578 kts 82°
2026-05-05 00:58 41.10650 174.36208 35157 ft 579 kts 82°
2026-05-05 00:59 41.10704 174.46893 35148 ft 579 kts 82°
2026-05-05 00:59 41.10749 174.57560 35150 ft 580 kts 82°
2026-05-05 01:00 41.10783 174.68255 35155 ft 580 kts 82°
2026-05-05 01:00 41.10808 174.78918 35151 ft 581 kts 82°
2026-05-05 01:01 41.10822 174.89608 35148 ft 581 kts 83°
2026-05-05 01:01 41.10827 175.00331 35146 ft 582 kts 83°
2026-05-05 01:02 41.10822 175.11109 35144 ft 582 kts 83°
2026-05-05 01:02 41.10807 175.21862 35140 ft 583 kts 83°
2026-05-05 01:03 41.10782 175.32572 35144 ft 584 kts 83°
2026-05-05 01:03 41.10746 175.43360 35130 ft 584 kts 83°
2026-05-05 01:04 41.10701 175.54145 35144 ft 584 kts 83°
2026-05-05 01:04 41.10613 175.70271 35131 ft 585 kts 83°
2026-05-05 01:05 41.10543 175.81093 35132 ft 585 kts 83°
2026-05-05 01:05 41.10462 175.91803 35129 ft 585 kts 83°
2026-05-05 01:06 41.10371 176.02629 35124 ft 585 kts 83°
2026-05-05 01:06 41.10270 176.13392 35125 ft 585 kts 83°
2026-05-05 01:07 41.10159 176.24177 35122 ft 585 kts 83°
2026-05-05 01:07 41.10037 176.34989 35119 ft 585 kts 83°
2026-05-05 01:08 41.09929 176.43951 35115 ft 585 kts 83°
2026-05-05 01:08 41.09765 176.56545 35111 ft 586 kts 82°
2026-05-05 01:09 41.09614 176.67331 35111 ft 586 kts 82°
2026-05-05 01:09 41.09480 176.76378 35107 ft 586 kts 82°
2026-05-05 01:10 41.09311 176.87141 35105 ft 586 kts 82°
2026-05-05 01:10 41.09131 176.97958 35101 ft 586 kts 82°
2026-05-05 01:11 41.08940 177.08783 35102 ft 587 kts 82°
2026-05-05 01:11 41.08740 177.19606 35091 ft 587 kts 82°
2026-05-05 01:12 41.08530 177.30395 35100 ft 588 kts 82°
2026-05-05 01:12 41.08308 177.41272 35090 ft 588 kts 82°
2026-05-05 01:13 41.08077 177.52111 35087 ft 589 kts 82°
2026-05-05 01:13 41.07837 177.62912 35088 ft 589 kts 82°
2026-05-05 01:14 41.07584 177.73785 35081 ft 590 kts 82°
2026-05-05 01:14 41.07321 177.84696 35079 ft 590 kts 82°
2026-05-05 01:15 41.07048 177.95557 35074 ft 591 kts 82°
2026-05-05 01:15 41.06764 178.06473 35075 ft 591 kts 82°
2026-05-05 01:16 41.06470 178.17363 35073 ft 591 kts 82°
2026-05-05 01:16 41.06167 178.28193 35069 ft 592 kts 82°
2026-05-05 01:17 41.05851 178.39147 35065 ft 592 kts 82°
2026-05-05 01:17 41.05526 178.50060 35064 ft 592 kts 82°
2026-05-05 01:18 41.05192 178.60890 35063 ft 592 kts 82°
2026-05-05 01:18 41.04845 178.71837 35056 ft 593 kts 82°
2026-05-05 01:19 41.04490 178.82699 35053 ft 593 kts 82°
2026-05-05 01:19 41.04122 178.93636 35049 ft 593 kts 82°
2026-05-05 01:20 41.03744 179.04589 35047 ft 593 kts 82°
2026-05-05 01:20 41.03359 179.15457 35041 ft 594 kts 81°
2026-05-05 01:21 41.02961 179.26358 35039 ft 594 kts 81°
2026-05-05 01:21 41.02551 179.37327 35031 ft 594 kts 81°
2026-05-05 01:22 41.02133 179.48214 35035 ft 594 kts 81°
2026-05-05 01:22 41.01702 179.59196 35029 ft 594 kts 81°
2026-05-05 01:23 41.01263 179.70091 35023 ft 594 kts 81°
2026-05-05 01:23 41.00814 179.80990 35018 ft 594 kts 81°
2026-05-05 01:24 41.00355 179.91897 35013 ft 594 kts 81°
2026-05-05 01:24 40.99528 -179.97141 35013 ft 607 kts 89°
2026-05-05 01:25 40.97974 -179.86097 35005 ft 610 kts 91°
2026-05-05 01:25 40.96251 -179.75091 35005 ft 611 kts 91°
2026-05-05 01:26 40.94502 -179.64094 35001 ft 611 kts 91°
2026-05-05 01:26 40.92773 -179.53097 35001 ft 611 kts 91°
2026-05-05 01:27 40.91051 -179.42107 34991 ft 611 kts 91°
2026-05-05 01:27 40.89328 -179.31159 34997 ft 611 kts 91°
2026-05-05 01:28 40.87583 -179.20157 34990 ft 611 kts 91°
2026-05-05 01:28 40.85824 -179.09154 34990 ft 611 kts 91°
2026-05-05 01:29 40.84051 -178.98138 34982 ft 612 kts 91°
2026-05-05 01:29 40.82282 -178.87212 34984 ft 612 kts 91°
2026-05-05 01:30 40.80491 -178.76221 34980 ft 612 kts 91°
2026-05-05 01:30 40.78688 -178.65225 34974 ft 613 kts 91°
2026-05-05 01:31 40.76875 -178.54241 34975 ft 614 kts 91°
2026-05-05 01:31 40.75046 -178.43223 34972 ft 615 kts 91°
2026-05-05 01:32 40.73200 -178.32173 34970 ft 616 kts 91°
2026-05-05 01:32 40.71349 -178.21169 34967 ft 617 kts 91°
2026-05-05 01:33 40.69479 -178.10120 34962 ft 617 kts 91°
2026-05-05 01:33 40.67607 -177.99121 34958 ft 618 kts 91°
2026-05-05 01:34 40.65711 -177.88054 34948 ft 619 kts 91°
2026-05-05 01:34 40.63808 -177.77015 34955 ft 620 kts 92°
2026-05-05 01:35 40.61882 -177.65904 34959 ft 621 kts 92°
2026-05-05 01:35 40.59950 -177.54827 34957 ft 622 kts 92°
2026-05-05 01:36 40.58004 -177.43736 34950 ft 624 kts 92°
2026-05-05 01:36 40.56043 -177.32637 34948 ft 625 kts 92°
2026-05-05 01:37 40.54063 -177.21492 34945 ft 627 kts 92°
2026-05-05 01:37 40.52061 -177.10294 34932 ft 628 kts 92°
2026-05-05 01:38 40.50057 -176.99147 34940 ft 629 kts 92°
2026-05-05 01:38 40.48026 -176.87923 34934 ft 630 kts 93°
2026-05-05 01:39 40.45991 -176.76738 34932 ft 631 kts 93°
2026-05-05 01:39 40.43934 -176.65502 34933 ft 632 kts 93°
2026-05-05 01:40 40.41868 -176.54280 34926 ft 632 kts 94°
2026-05-05 01:40 40.39784 -176.43029 34926 ft 633 kts 94°
2026-05-05 01:41 40.37700 -176.31840 34926 ft 633 kts 94°
2026-05-05 01:41 40.35602 -176.20647 34921 ft 634 kts 94°
2026-05-05 01:42 40.33487 -176.09417 34921 ft 634 kts 95°
2026-05-05 01:42 40.31370 -175.98250 34920 ft 634 kts 95°
2026-05-05 01:43 40.29229 -175.87017 34903 ft 633 kts 95°
2026-05-05 01:43 40.27075 -175.75778 34912 ft 633 kts 96°
2026-05-05 01:44 40.24923 -175.64617 34909 ft 633 kts 96°
2026-05-05 01:44 40.22757 -175.53443 34903 ft 633 kts 96°
2026-05-05 01:45 40.20590 -175.42327 34903 ft 632 kts 96°
2026-05-05 01:45 40.18409 -175.31201 34905 ft 632 kts 97°
2026-05-05 01:46 40.16207 -175.20029 34905 ft 632 kts 97°
2026-05-05 01:46 40.14009 -175.08938 34899 ft 631 kts 97°
2026-05-05 01:47 40.11807 -174.97877 34899 ft 631 kts 98°
2026-05-05 01:47 40.09578 -174.86752 34899 ft 630 kts 98°
2026-05-05 01:48 40.07348 -174.75689 34896 ft 630 kts 98°
2026-05-05 01:48 40.05488 -174.66505 34890 ft 630 kts 99°
2026-05-05 01:49 40.03235 -174.55429 34891 ft 629 kts 99°
2026-05-05 01:49 40.00619 -174.42642 34892 ft 628 kts 99°
2026-05-05 01:50 39.98733 -174.33472 34890 ft 628 kts 99°
2026-05-05 01:50 39.96452 -174.22432 34890 ft 627 kts 100°
2026-05-05 01:51 39.94188 -174.11536 34888 ft 627 kts 100°
2026-05-05 01:51 39.91902 -174.00589 34884 ft 626 kts 101°
2026-05-05 01:52 39.89599 -173.89617 34885 ft 626 kts 101°
2026-05-05 01:52 39.87286 -173.78652 34885 ft 625 kts 101°
2026-05-05 01:53 39.84979 -173.67773 34882 ft 625 kts 101°
2026-05-05 01:53 39.82669 -173.56937 34886 ft 624 kts 102°
2026-05-05 01:54 39.80332 -173.46025 34885 ft 624 kts 102°
2026-05-05 01:54 39.77996 -173.35177 34883 ft 623 kts 102°
2026-05-05 01:55 39.75660 -173.24380 34882 ft 623 kts 102°
2026-05-05 01:55 39.73301 -173.13532 34879 ft 622 kts 102°
2026-05-05 01:56 39.70938 -173.02720 34880 ft 622 kts 103°
2026-05-05 01:56 39.68569 -172.91931 34878 ft 621 kts 103°
2026-05-05 01:57 39.66184 -172.81122 34878 ft 621 kts 103°
2026-05-05 01:57 39.63794 -172.70348 34880 ft 621 kts 103°
2026-05-05 01:58 39.61394 -172.59577 34878 ft 621 kts 103°
2026-05-05 01:58 39.58993 -172.48854 34879 ft 620 kts 104°
2026-05-05 01:59 39.56583 -172.38141 34879 ft 620 kts 104°
2026-05-05 01:59 39.54164 -172.27440 34875 ft 620 kts 104°
2026-05-05 02:00 39.51716 -172.16666 34873 ft 619 kts 104°
2026-05-05 02:00 39.49287 -172.06021 34877 ft 619 kts 104°
2026-05-05 02:01 39.46831 -171.95310 34877 ft 619 kts 105°
2026-05-05 02:01 39.44385 -171.84692 34876 ft 618 kts 105°
2026-05-05 02:02 39.41919 -171.74040 34881 ft 618 kts 105°
2026-05-05 02:02 39.39443 -171.63393 34882 ft 618 kts 105°
2026-05-05 02:03 39.36954 -171.52739 34883 ft 618 kts 105°
2026-05-05 02:03 39.34455 -171.42085 34884 ft 617 kts 106°
2026-05-05 02:04 39.31957 -171.31491 34885 ft 616 kts 106°
2026-05-05 02:04 39.29465 -171.20968 34888 ft 616 kts 106°
2026-05-05 02:05 39.26948 -171.10387 34891 ft 615 kts 107°
2026-05-05 02:05 39.24422 -170.99817 34891 ft 615 kts 107°
2026-05-05 02:06 39.21902 -170.89320 34895 ft 614 kts 107°
2026-05-05 02:06 39.19361 -170.78780 34892 ft 614 kts 107°
2026-05-05 02:07 39.16833 -170.68344 34897 ft 614 kts 107°
2026-05-05 02:07 39.14272 -170.57814 34896 ft 613 kts 107°
2026-05-05 02:08 39.11717 -170.47357 34895 ft 613 kts 108°
2026-05-05 02:08 39.09151 -170.36903 34896 ft 613 kts 108°
2026-05-05 02:09 39.06554 -170.26369 34899 ft 613 kts 108°
2026-05-05 02:09 39.03985 -170.15988 34903 ft 612 kts 108°
2026-05-05 02:10 39.01394 -170.05564 34905 ft 612 kts 108°
2026-05-05 02:10 38.98793 -169.95123 34909 ft 611 kts 108°
2026-05-05 02:11 38.96225 -169.84758 34904 ft 611 kts 108°
2026-05-05 02:11 38.93635 -169.74329 34906 ft 610 kts 109°
2026-05-05 02:12 38.89742 -169.58750 34912 ft 610 kts 109°
2026-05-05 02:13 38.87132 -169.48373 34911 ft 609 kts 109°
2026-05-05 02:13 38.84536 -169.38099 34911 ft 609 kts 109°
2026-05-05 02:14 38.81916 -169.27765 34911 ft 608 kts 109°
2026-05-05 02:14 38.79291 -169.17462 34913 ft 608 kts 110°
2026-05-05 02:15 38.76651 -169.07140 34924 ft 608 kts 110°
2026-05-05 02:15 38.73999 -168.96816 34920 ft 608 kts 110°
2026-05-05 02:16 38.71367 -168.86610 34922 ft 608 kts 110°
2026-05-05 02:16 38.68703 -168.76323 34920 ft 607 kts 110°
2026-05-05 02:17 38.66036 -168.66067 34924 ft 607 kts 110°
2026-05-05 02:17 38.63366 -168.55841 34924 ft 606 kts 111°
2026-05-05 02:18 38.60678 -168.45589 34927 ft 606 kts 111°
2026-05-05 02:18 38.57995 -168.35399 34926 ft 606 kts 111°
2026-05-05 02:19 38.55297 -168.25193 34929 ft 605 kts 111°
2026-05-05 02:19 38.52608 -168.15060 34932 ft 605 kts 111°
2026-05-05 02:20 38.49896 -168.04875 34934 ft 604 kts 111°
2026-05-05 02:20 38.47178 -167.94703 34938 ft 603 kts 111°
2026-05-05 02:21 38.44468 -167.84606 34944 ft 603 kts 112°
2026-05-05 02:21 38.41729 -167.74454 34940 ft 602 kts 112°
2026-05-05 02:22 38.39014 -167.64429 34937 ft 601 kts 112°
2026-05-05 02:22 38.36266 -167.54321 34941 ft 601 kts 112°
2026-05-05 02:23 38.33536 -167.44316 34940 ft 600 kts 112°
2026-05-05 02:23 38.30791 -167.34291 34958 ft 600 kts 112°
2026-05-05 02:24 38.28032 -167.24255 34961 ft 599 kts 112°
2026-05-05 02:24 38.25262 -167.14218 34959 ft 599 kts 112°
2026-05-05 02:25 38.22513 -167.04281 34956 ft 598 kts 112°
2026-05-05 02:25 38.19734 -166.94286 34966 ft 598 kts 113°
2026-05-05 02:26 38.16952 -166.84329 34968 ft 598 kts 113°
2026-05-05 02:26 38.14162 -166.74380 34973 ft 597 kts 113°
2026-05-05 02:27 38.11369 -166.64452 34974 ft 597 kts 113°
2026-05-05 02:27 38.08559 -166.54502 34979 ft 597 kts 113°
2026-05-05 02:28 38.05766 -166.44645 34986 ft 596 kts 113°
2026-05-05 02:28 38.02947 -166.34731 34987 ft 596 kts 113°
2026-05-05 02:29 38.00584 -166.26446 34993 ft 596 kts 113°
2026-05-05 02:29 37.97766 -166.16609 34999 ft 596 kts 113°
2026-05-05 02:30 37.94923 -166.06722 35009 ft 596 kts 113°
2026-05-05 02:30 37.92097 -165.96924 35002 ft 595 kts 114°
2026-05-05 02:31 37.89241 -165.87061 35018 ft 595 kts 114°
2026-05-05 02:31 37.86376 -165.77207 35019 ft 595 kts 114°
2026-05-05 02:32 37.83519 -165.67410 35024 ft 595 kts 114°
2026-05-05 02:32 37.80638 -165.57569 35025 ft 595 kts 114°
2026-05-05 02:33 37.77768 -165.47801 35034 ft 595 kts 114°
2026-05-05 02:33 37.74873 -165.37985 35038 ft 595 kts 114°
2026-05-05 02:34 37.71967 -165.28164 35045 ft 595 kts 114°
2026-05-05 02:34 37.69067 -165.18398 35052 ft 595 kts 114°
2026-05-05 02:35 37.66156 -165.08630 35057 ft 595 kts 114°
2026-05-05 02:35 37.63234 -164.98859 35058 ft 595 kts 114°
2026-05-05 02:36 37.60316 -164.89137 35069 ft 595 kts 114°
2026-05-05 02:36 37.57379 -164.79386 35072 ft 595 kts 114°
2026-05-05 02:37 37.54432 -164.69635 35076 ft 595 kts 114°
2026-05-05 02:37 37.51471 -164.59874 35089 ft 595 kts 114°
2026-05-05 02:38 37.48512 -164.50154 35091 ft 594 kts 115°
2026-05-05 02:38 37.45542 -164.40428 35097 ft 594 kts 115°
2026-05-05 02:39 37.42586 -164.30786 35097 ft 594 kts 115°
2026-05-05 02:39 37.39584 -164.21025 35102 ft 594 kts 115°
2026-05-05 02:40 37.36612 -164.11395 35104 ft 594 kts 115°
2026-05-05 02:40 37.33618 -164.01729 35109 ft 593 kts 115°
2026-05-05 02:41 37.30600 -163.92016 35114 ft 593 kts 115°
2026-05-05 02:41 37.27611 -163.82429 35117 ft 593 kts 115°
2026-05-05 02:42 37.24579 -163.72736 35122 ft 593 kts 115°
2026-05-05 02:42 37.21567 -163.63143 35123 ft 593 kts 115°
2026-05-05 02:43 37.18550 -163.53563 35131 ft 592 kts 115°
2026-05-05 02:43 37.15517 -163.43968 35126 ft 592 kts 115°
2026-05-05 02:44 37.12469 -163.34356 35131 ft 592 kts 115°
2026-05-05 02:44 37.09421 -163.24777 35134 ft 592 kts 115°
2026-05-05 02:45 37.06371 -163.15222 35143 ft 591 kts 115°
2026-05-05 02:45 37.03305 -163.05649 35145 ft 591 kts 116°
2026-05-05 02:46 37.00251 -162.96146 35147 ft 591 kts 116°
2026-05-05 02:46 36.97174 -162.86601 35153 ft 590 kts 116°
2026-05-05 02:47 36.94096 -162.77086 35153 ft 590 kts 116°
2026-05-05 02:47 36.91013 -162.67586 35157 ft 590 kts 116°
2026-05-05 02:48 36.87926 -162.58104 35159 ft 590 kts 116°
2026-05-05 02:48 36.84812 -162.48571 35163 ft 589 kts 116°
2026-05-05 02:49 36.81726 -162.39156 35162 ft 589 kts 116°
2026-05-05 02:49 36.78605 -162.29663 35168 ft 589 kts 116°
2026-05-05 02:50 36.75493 -162.20228 35172 ft 589 kts 116°
2026-05-05 02:50 36.72364 -162.10771 35171 ft 589 kts 116°
2026-05-05 02:51 36.69222 -162.01305 35172 ft 589 kts 116°
2026-05-05 02:51 36.66101 -161.91932 35174 ft 589 kts 116°
2026-05-05 02:52 36.62950 -161.82502 35183 ft 589 kts 116°
2026-05-05 02:52 36.59796 -161.73088 35187 ft 589 kts 116°
2026-05-05 02:53 36.56629 -161.63668 35183 ft 589 kts 116°
2026-05-05 02:53 36.53475 -161.54318 35187 ft 589 kts 116°
2026-05-05 02:54 36.50295 -161.44918 35193 ft 588 kts 117°
2026-05-05 02:54 36.47126 -161.35579 35194 ft 588 kts 117°
2026-05-05 02:55 36.43939 -161.26216 35193 ft 588 kts 117°
2026-05-05 02:55 36.40737 -161.16840 35196 ft 588 kts 117°
2026-05-05 02:56 36.37540 -161.07507 35202 ft 588 kts 117°
2026-05-05 02:56 36.34335 -160.98179 35217 ft 588 kts 117°
2026-05-05 02:57 36.31129 -160.88876 35205 ft 587 kts 117°
2026-05-05 02:57 36.27916 -160.79584 35208 ft 587 kts 117°
2026-05-05 02:58 36.24685 -160.70267 35211 ft 587 kts 117°
2026-05-05 02:58 36.21453 -160.60976 35220 ft 587 kts 117°
2026-05-05 02:59 36.18225 -160.51723 35218 ft 587 kts 117°
2026-05-05 02:59 36.14964 -160.42405 35219 ft 587 kts 117°
2026-05-05 03:00 36.11727 -160.33184 35218 ft 586 kts 117°
2026-05-05 03:00 36.08482 -160.23969 35221 ft 586 kts 117°
2026-05-05 03:01 36.05212 -160.14708 35224 ft 586 kts 117°
2026-05-05 03:01 36.01955 -160.05515 35227 ft 586 kts 117°
2026-05-05 03:02 35.99400 -159.95951 35228 ft 592 kts 105°
2026-05-05 03:02 35.97705 -159.86006 35227 ft 593 kts 103°
2026-05-05 03:03 35.96189 -159.75972 35231 ft 593 kts 102°
2026-05-05 03:03 35.94682 -159.65993 35233 ft 593 kts 102°
2026-05-05 03:04 35.93121 -159.55984 35233 ft 592 kts 103°
2026-05-05 03:04 35.91541 -159.46044 35236 ft 592 kts 103°
2026-05-05 03:05 35.89939 -159.36053 35238 ft 592 kts 103°
2026-05-05 03:05 35.88337 -159.26094 35232 ft 592 kts 103°
2026-05-05 03:06 35.86732 -159.16156 35244 ft 591 kts 103°
2026-05-05 03:06 35.85127 -159.06275 35248 ft 591 kts 103°
2026-05-05 03:07 35.83502 -158.96327 35248 ft 591 kts 103°
2026-05-05 03:07 35.81877 -158.86430 35243 ft 590 kts 103°
2026-05-05 03:08 35.80248 -158.76567 35243 ft 590 kts 103°
2026-05-05 03:08 35.78606 -158.66674 35248 ft 589 kts 103°
2026-05-05 03:09 35.76952 -158.56760 35249 ft 589 kts 103°
2026-05-05 03:09 35.75296 -158.46891 35249 ft 589 kts 103°
2026-05-05 03:10 35.73635 -158.37045 35247 ft 588 kts 103°
2026-05-05 03:10 35.71968 -158.27210 35248 ft 587 kts 103°
2026-05-05 03:11 35.70573 -158.19018 35247 ft 587 kts 104°
2026-05-05 03:11 35.68614 -158.07577 35253 ft 586 kts 104°
2026-05-05 03:12 35.67211 -157.99425 35254 ft 585 kts 104°
2026-05-05 03:12 35.65513 -157.89605 35252 ft 585 kts 104°
2026-05-05 03:13 35.63815 -157.79836 35254 ft 584 kts 104°
2026-05-05 03:13 35.62114 -157.70104 35257 ft 584 kts 104°
2026-05-05 03:14 35.60402 -157.60351 35256 ft 584 kts 104°
2026-05-05 03:14 35.58680 -157.50590 35263 ft 583 kts 104°
2026-05-05 03:15 35.56955 -157.40867 35261 ft 583 kts 104°
2026-05-05 03:15 35.55224 -157.31150 35262 ft 583 kts 104°
2026-05-05 03:16 35.53487 -157.21452 35259 ft 582 kts 104°
2026-05-05 03:16 35.51733 -157.11710 35262 ft 582 kts 104°
2026-05-05 03:17 35.49988 -157.02061 35262 ft 582 kts 104°
2026-05-05 03:17 35.48230 -156.92382 35264 ft 581 kts 104°
2026-05-05 03:18 35.46465 -156.82715 35268 ft 581 kts 105°
2026-05-05 03:18 35.44690 -156.73041 35268 ft 581 kts 105°
2026-05-05 03:19 35.42022 -156.58589 35268 ft 580 kts 105°
2026-05-05 03:19 35.40235 -156.48962 35267 ft 579 kts 105°
2026-05-05 03:20 35.38440 -156.39340 35269 ft 579 kts 105°
2026-05-05 03:20 35.36635 -156.29711 35265 ft 578 kts 105°
2026-05-05 03:21 35.34837 -156.20165 35270 ft 577 kts 105°
2026-05-05 03:21 35.33023 -156.10576 35270 ft 576 kts 105°
2026-05-05 03:22 35.31216 -156.01067 35270 ft 576 kts 105°
2026-05-05 03:22 35.29390 -155.91502 35272 ft 575 kts 105°
2026-05-05 03:23 35.27562 -155.81974 35273 ft 575 kts 106°
2026-05-05 03:23 35.25726 -155.72443 35271 ft 574 kts 106°
2026-05-05 03:24 35.23899 -155.63000 35274 ft 574 kts 106°
2026-05-05 03:24 35.22046 -155.53476 35274 ft 574 kts 106°
2026-05-05 03:25 35.20193 -155.43984 35273 ft 574 kts 106°
2026-05-05 03:25 35.18332 -155.34498 35274 ft 574 kts 106°
2026-05-05 03:26 35.16468 -155.25034 35271 ft 573 kts 106°
2026-05-05 03:26 35.14597 -155.15579 35269 ft 573 kts 106°
2026-05-05 03:27 35.12718 -155.06124 35267 ft 573 kts 106°
2026-05-05 03:27 35.10830 -154.96667 35263 ft 573 kts 106°
2026-05-05 03:28 35.08947 -154.87278 35268 ft 572 kts 106°
2026-05-05 03:28 35.07048 -154.77846 35265 ft 572 kts 106°
2026-05-05 03:29 35.05145 -154.68431 35271 ft 571 kts 106°
2026-05-05 03:29 35.03228 -154.58993 35274 ft 571 kts 107°
2026-05-05 03:30 35.01314 -154.49610 35273 ft 570 kts 107°
2026-05-05 03:30 34.99393 -154.40233 35272 ft 570 kts 107°
2026-05-05 03:31 34.97468 -154.30872 35275 ft 570 kts 107°
2026-05-05 03:31 34.95535 -154.21513 35269 ft 569 kts 107°
2026-05-05 03:32 34.93597 -154.12171 35273 ft 569 kts 107°
2026-05-05 03:32 34.91651 -154.02828 35272 ft 568 kts 107°
2026-05-05 03:33 34.89710 -153.93545 35271 ft 567 kts 107°
2026-05-05 03:33 34.87764 -153.84279 35272 ft 567 kts 107°
2026-05-05 03:34 34.85788 -153.74912 35266 ft 567 kts 107°
2026-05-05 03:34 34.83831 -153.65664 35270 ft 567 kts 107°
2026-05-05 03:35 34.81853 -153.56362 35267 ft 567 kts 107°
2026-05-05 03:35 34.79871 -153.47075 35270 ft 566 kts 107°
2026-05-05 03:36 34.77894 -153.37850 35266 ft 566 kts 107°
2026-05-05 03:36 34.75889 -153.28533 35267 ft 565 kts 107°
2026-05-05 03:37 34.73904 -153.19345 35262 ft 564 kts 107°
2026-05-05 03:37 34.71911 -153.10156 35264 ft 564 kts 107°
2026-05-05 03:38 34.69896 -153.00904 35264 ft 563 kts 107°
2026-05-05 03:38 34.67890 -152.91723 35267 ft 563 kts 107°
2026-05-05 03:39 34.65872 -152.82532 35268 ft 563 kts 107°
2026-05-05 03:39 34.63851 -152.73356 35264 ft 563 kts 108°
2026-05-05 03:40 34.61819 -152.64171 35260 ft 562 kts 108°
2026-05-05 03:40 34.59789 -152.55026 35267 ft 562 kts 108°
2026-05-05 03:41 34.57751 -152.45882 35263 ft 562 kts 108°
2026-05-05 03:41 34.55703 -152.36726 35265 ft 561 kts 108°
2026-05-05 03:42 34.53649 -152.27584 35260 ft 561 kts 108°
2026-05-05 03:42 34.51597 -152.18478 35260 ft 560 kts 108°
2026-05-05 03:43 34.49546 -152.09413 35259 ft 560 kts 108°
2026-05-05 03:43 34.47482 -152.00327 35255 ft 560 kts 108°
2026-05-05 03:44 34.45405 -151.91220 35253 ft 559 kts 108°
2026-05-05 03:44 34.43338 -151.82184 35253 ft 559 kts 108°
2026-05-05 03:45 34.41242 -151.73059 35257 ft 559 kts 108°
2026-05-05 03:45 34.39152 -151.63996 35256 ft 559 kts 108°
2026-05-05 03:46 34.37065 -151.54977 35247 ft 559 kts 109°
2026-05-05 03:46 34.34957 -151.45901 35249 ft 558 kts 109°
2026-05-05 03:47 34.32857 -151.36892 35250 ft 557 kts 109°
2026-05-05 03:47 34.30746 -151.27871 35245 ft 555 kts 109°
2026-05-05 03:48 34.28652 -151.18956 35248 ft 554 kts 109°
2026-05-05 03:48 34.26542 -151.10004 35245 ft 554 kts 109°
2026-05-05 03:49 34.24421 -151.01036 35245 ft 553 kts 109°
2026-05-05 03:49 34.22313 -150.92156 35241 ft 552 kts 109°
2026-05-05 03:50 34.20180 -150.83203 35240 ft 552 kts 109°
2026-05-05 03:50 34.18045 -150.74269 35238 ft 552 kts 109°
2026-05-05 03:51 34.15917 -150.65399 35239 ft 552 kts 109°
2026-05-05 03:51 34.13773 -150.56496 35241 ft 552 kts 109°
2026-05-05 03:52 34.11618 -150.47574 35240 ft 553 kts 109°
2026-05-05 03:52 34.09472 -150.38717 35242 ft 553 kts 109°
2026-05-05 03:53 34.07295 -150.29768 35240 ft 554 kts 109°
2026-05-05 03:53 34.05119 -150.20855 35241 ft 554 kts 109°
2026-05-05 03:54 34.02935 -150.11935 35241 ft 554 kts 109°
2026-05-05 03:54 34.00754 -150.03062 35240 ft 554 kts 109°
2026-05-05 03:55 33.98771 -149.94065 35239 ft 556 kts 105°
2026-05-05 03:55 33.97181 -149.84962 35238 ft 556 kts 103°
2026-05-05 03:56 33.95644 -149.75848 35236 ft 555 kts 103°
2026-05-05 03:56 33.94045 -149.66734 35235 ft 555 kts 104°
2026-05-05 03:57 33.92408 -149.57661 35236 ft 554 kts 104°
2026-05-05 03:57 33.90757 -149.48610 35235 ft 554 kts 104°
2026-05-05 03:58 33.89102 -149.39566 35235 ft 554 kts 104°
2026-05-05 03:58 33.87452 -149.30573 35235 ft 554 kts 104°
2026-05-05 03:59 33.85778 -149.21488 35230 ft 553 kts 104°
2026-05-05 03:59 33.84105 -149.12449 35228 ft 553 kts 104°
2026-05-05 04:00 33.82429 -149.03433 35225 ft 552 kts 104°
2026-05-05 04:00 33.80746 -148.94418 35222 ft 552 kts 104°
2026-05-05 04:01 33.79069 -148.85469 35221 ft 552 kts 104°
2026-05-05 04:01 33.77376 -148.76480 35215 ft 551 kts 104°
2026-05-05 04:02 33.75680 -148.67510 35220 ft 552 kts 104°
2026-05-05 04:02 33.73973 -148.58509 35228 ft 552 kts 104°
2026-05-05 04:03 33.72255 -148.49504 35221 ft 552 kts 104°
2026-05-05 04:03 33.70824 -148.42028 35221 ft 552 kts 104°
2026-05-05 04:04 33.69105 -148.33085 35215 ft 552 kts 104°
2026-05-05 04:04 33.67370 -148.24087 35221 ft 552 kts 104°
2026-05-05 04:05 33.65630 -148.15107 35222 ft 552 kts 104°
2026-05-05 04:05 33.63880 -148.06109 35220 ft 552 kts 105°
2026-05-05 04:06 33.62134 -147.97172 35219 ft 552 kts 104°
2026-05-05 04:06 33.60381 -147.88234 35219 ft 551 kts 105°
2026-05-05 04:07 33.58620 -147.79295 35211 ft 551 kts 105°
2026-05-05 04:07 33.56854 -147.70360 35226 ft 550 kts 105°
2026-05-05 04:08 33.55075 -147.61404 35227 ft 550 kts 104°
2026-05-05 04:08 33.53311 -147.52551 35224 ft 549 kts 104°
2026-05-05 04:09 33.51524 -147.43624 35230 ft 549 kts 105°
2026-05-05 04:09 33.49744 -147.34761 35235 ft 549 kts 105°
2026-05-05 04:10 33.47947 -147.25851 35235 ft 549 kts 105°
2026-05-05 04:10 33.46143 -147.16942 35234 ft 549 kts 105°
2026-05-05 04:11 33.44345 -147.08099 35236 ft 550 kts 105°
2026-05-05 04:11 33.42534 -146.99224 35238 ft 550 kts 105°
2026-05-05 04:12 33.40709 -146.90320 35238 ft 550 kts 105°
2026-05-05 04:12 33.38879 -146.81423 35236 ft 551 kts 105°
2026-05-05 04:13 33.37042 -146.72529 35240 ft 551 kts 105°
2026-05-05 04:13 33.35206 -146.63671 35242 ft 551 kts 105°
2026-05-05 04:14 33.33355 -146.54774 35245 ft 551 kts 105°
2026-05-05 04:14 33.31498 -146.45889 35247 ft 550 kts 105°
2026-05-05 04:15 33.29644 -146.37046 35252 ft 550 kts 105°
2026-05-05 04:15 33.27776 -146.28173 35250 ft 550 kts 105°
2026-05-05 04:16 33.25904 -146.19315 35250 ft 549 kts 105°
2026-05-05 04:16 33.24039 -146.10522 35255 ft 548 kts 105°
2026-05-05 04:17 33.22162 -146.01704 35253 ft 547 kts 105°
2026-05-05 04:17 33.20274 -145.92867 35257 ft 546 kts 105°
2026-05-05 04:18 33.18396 -145.84109 35258 ft 546 kts 105°
2026-05-05 04:18 33.16520 -145.75395 35256 ft 545 kts 105°
2026-05-05 04:19 33.14625 -145.66625 35259 ft 545 kts 105°
2026-05-05 04:19 33.12732 -145.57896 35264 ft 545 kts 105°
2026-05-05 04:20 33.10829 -145.49152 35262 ft 545 kts 105°
2026-05-05 04:20 33.08914 -145.40387 35264 ft 545 kts 105°
2026-05-05 04:21 33.06988 -145.31603 35264 ft 545 kts 105°
2026-05-05 04:21 33.05074 -145.22906 35265 ft 545 kts 105°
2026-05-05 04:22 33.03142 -145.14157 35267 ft 545 kts 105°
2026-05-05 04:22 33.01211 -145.05444 35269 ft 545 kts 105°
2026-05-05 04:23 33.00113 -144.96513 35269 ft 544 kts 91°
2026-05-05 04:23 33.00123 -144.87556 35268 ft 542 kts 87°
2026-05-05 04:24 33.00342 -144.78577 35269 ft 542 kts 87°
2026-05-05 04:25 33.00650 -144.65119 35271 ft 541 kts 87°
2026-05-05 04:25 33.00807 -144.56197 35274 ft 540 kts 87°
2026-05-05 04:26 33.00949 -144.47199 35276 ft 540 kts 87°
2026-05-05 04:26 33.01084 -144.38281 35269 ft 539 kts 87°
2026-05-05 04:27 33.01213 -144.29391 35278 ft 539 kts 87°
2026-05-05 04:27 33.01338 -144.20461 35273 ft 538 kts 87°
2026-05-05 04:28 33.01456 -144.11557 35274 ft 538 kts 87°
2026-05-05 04:28 33.01568 -144.02622 35277 ft 538 kts 87°
2026-05-05 04:29 33.01673 -143.93745 35275 ft 538 kts 87°
2026-05-05 04:29 33.01772 -143.84830 35278 ft 537 kts 87°
2026-05-05 04:30 33.01865 -143.75903 35280 ft 537 kts 88°
2026-05-05 04:30 33.01955 -143.66948 35279 ft 547 kts 88°
2026-05-05 04:31 33.02037 -143.57882 35277 ft 550 kts 88°
2026-05-05 04:31 33.02110 -143.48769 35278 ft 550 kts 88°
2026-05-05 04:32 33.02178 -143.39630 35279 ft 550 kts 88°
2026-05-05 04:32 33.02239 -143.30512 35281 ft 550 kts 88°
2026-05-05 04:33 33.02295 -143.21444 35281 ft 550 kts 88°
2026-05-05 04:33 33.02343 -143.12335 35282 ft 550 kts 88°
2026-05-05 04:34 33.02385 -143.03226 35280 ft 550 kts 88°
2026-05-05 04:34 33.02420 -142.94106 35285 ft 550 kts 88°
2026-05-05 04:35 33.02449 -142.85008 35280 ft 550 kts 88°
2026-05-05 04:35 33.02471 -142.75904 35284 ft 550 kts 88°
2026-05-05 04:36 33.02487 -142.66823 35287 ft 550 kts 88°
2026-05-05 04:36 33.02496 -142.57693 35283 ft 550 kts 88°
2026-05-05 04:37 33.02498 -142.48587 35283 ft 550 kts 88°
2026-05-05 04:37 33.02494 -142.39456 35281 ft 550 kts 88°
2026-05-05 04:38 33.02483 -142.30385 35282 ft 550 kts 88°
2026-05-05 04:38 33.02465 -142.21296 35286 ft 550 kts 88°
2026-05-05 04:39 33.02441 -142.12201 35284 ft 550 kts 88°
2026-05-05 04:39 33.02410 -142.03087 35290 ft 550 kts 88°
2026-05-05 04:40 33.02372 -141.93966 35288 ft 550 kts 88°
2026-05-05 04:40 33.02328 -141.84847 35281 ft 550 kts 88°
2026-05-05 04:41 33.02278 -141.75796 35284 ft 550 kts 88°
2026-05-05 04:41 33.02221 -141.66667 35286 ft 549 kts 88°
2026-05-05 04:42 33.02157 -141.57565 35286 ft 549 kts 88°
2026-05-05 04:42 33.02086 -141.48453 35285 ft 549 kts 88°
2026-05-05 04:43 33.02010 -141.39392 35288 ft 549 kts 88°
2026-05-05 04:43 33.01926 -141.30317 35282 ft 548 kts 88°
2026-05-05 04:44 33.01836 -141.21194 35282 ft 548 kts 89°
2026-05-05 04:44 33.01740 -141.12162 35282 ft 548 kts 89°
2026-05-05 04:45 33.01637 -141.03109 35283 ft 548 kts 89°
2026-05-05 04:45 33.01527 -140.94007 35283 ft 548 kts 89°
2026-05-05 04:46 33.01411 -140.84928 35281 ft 548 kts 89°
2026-05-05 04:46 33.01288 -140.75873 35279 ft 548 kts 89°
2026-05-05 04:47 33.01159 -140.66815 35280 ft 548 kts 89°
2026-05-05 04:47 33.01022 -140.57678 35280 ft 548 kts 89°
2026-05-05 04:48 33.00880 -140.48619 35280 ft 548 kts 89°
2026-05-05 04:48 33.00731 -140.39545 35280 ft 548 kts 89°
2026-05-05 04:49 33.00576 -140.30499 35278 ft 548 kts 89°
2026-05-05 04:49 33.00413 -140.21413 35281 ft 548 kts 89°
2026-05-05 04:50 33.00246 -140.12387 35279 ft 547 kts 89°
2026-05-05 04:50 33.00071 -140.03342 35281 ft 547 kts 90°
2026-05-05 04:51 33.00385 -139.94311 35281 ft 545 kts 84°
2026-05-05 04:51 33.00981 -139.85305 35279 ft 545 kts 83°
2026-05-05 04:52 33.01618 -139.76303 35279 ft 544 kts 83°
2026-05-05 04:52 33.02235 -139.67377 35275 ft 544 kts 83°
2026-05-05 04:53 33.02840 -139.58376 35276 ft 544 kts 83°
2026-05-05 04:53 33.03432 -139.49382 35277 ft 543 kts 83°
2026-05-05 04:54 33.04018 -139.40392 35279 ft 543 kts 83°
2026-05-05 04:54 33.04594 -139.31461 35278 ft 543 kts 83°
2026-05-05 04:55 33.05164 -139.22535 35276 ft 543 kts 83°
2026-05-05 04:55 33.05733 -139.13511 35273 ft 543 kts 83°
2026-05-05 04:56 33.06200 -139.06036 35279 ft 543 kts 83°
2026-05-05 04:56 33.06843 -138.95610 35278 ft 543 kts 83°
2026-05-05 04:57 33.07302 -138.88079 35279 ft 543 kts 83°
2026-05-05 04:57 33.07844 -138.79093 35268 ft 543 kts 84°
2026-05-05 04:58 33.08380 -138.70108 35271 ft 543 kts 84°
2026-05-05 04:58 33.08907 -138.61148 35282 ft 543 kts 84°
2026-05-05 04:59 33.09430 -138.52148 35286 ft 543 kts 84°
2026-05-05 04:59 33.09945 -138.43188 35284 ft 543 kts 84°
2026-05-05 05:00 33.10453 -138.34224 35276 ft 543 kts 84°
2026-05-05 05:00 33.10959 -138.25186 35273 ft 543 kts 84°
2026-05-05 05:01 33.11454 -138.16230 35274 ft 543 kts 84°
2026-05-05 05:01 33.11944 -138.07241 35277 ft 543 kts 84°
2026-05-05 05:02 33.12428 -137.98244 35282 ft 543 kts 84°
2026-05-05 05:02 33.12905 -137.89254 35271 ft 544 kts 84°
2026-05-05 05:03 33.13378 -137.80217 35276 ft 544 kts 84°
2026-05-05 05:03 33.13840 -137.71275 35274 ft 544 kts 84°
2026-05-05 05:04 33.14299 -137.62262 35273 ft 544 kts 84°
2026-05-05 05:04 33.14752 -137.53234 35272 ft 544 kts 84°
2026-05-05 05:05 33.15196 -137.44245 35277 ft 544 kts 84°
2026-05-05 05:05 33.15635 -137.35221 35270 ft 544 kts 84°
2026-05-05 05:06 33.16069 -137.26174 35268 ft 544 kts 84°
2026-05-05 05:06 33.16495 -137.17160 35269 ft 544 kts 84°
2026-05-05 05:07 33.16914 -137.08169 35266 ft 544 kts 84°
2026-05-05 05:07 33.17326 -136.99165 35267 ft 544 kts 84°
2026-05-05 05:08 33.17733 -136.90146 35266 ft 544 kts 84°
2026-05-05 05:08 33.18133 -136.81132 35268 ft 544 kts 84°
2026-05-05 05:09 33.18528 -136.72113 35266 ft 544 kts 84°
2026-05-05 05:09 33.18915 -136.63092 35267 ft 544 kts 84°
2026-05-05 05:10 33.19295 -136.54115 35263 ft 544 kts 84°
2026-05-05 05:10 33.19671 -136.45048 35265 ft 545 kts 84°
2026-05-05 05:11 33.20038 -136.36054 35261 ft 545 kts 84°
2026-05-05 05:11 33.20399 -136.27036 35260 ft 545 kts 84°
2026-05-05 05:12 33.20754 -136.17994 35258 ft 545 kts 84°
2026-05-05 05:12 33.21102 -136.08968 35258 ft 545 kts 84°
2026-05-05 05:13 33.21445 -135.99917 35254 ft 545 kts 84°
2026-05-05 05:13 33.21782 -135.90821 35254 ft 545 kts 84°
2026-05-05 05:14 33.22111 -135.81787 35257 ft 545 kts 84°
2026-05-05 05:14 33.22434 -135.72727 35257 ft 545 kts 84°
2026-05-05 05:15 33.22751 -135.63672 35253 ft 545 kts 84°
2026-05-05 05:15 33.23058 -135.54688 35255 ft 545 kts 84°
2026-05-05 05:16 33.23362 -135.45627 35247 ft 545 kts 85°
2026-05-05 05:16 33.23659 -135.36561 35252 ft 545 kts 85°
2026-05-05 05:17 33.23947 -135.27550 35248 ft 545 kts 85°
2026-05-05 05:17 33.24230 -135.18523 35249 ft 545 kts 85°
2026-05-05 05:18 33.24507 -135.09474 35245 ft 545 kts 85°
2026-05-05 05:18 33.24777 -135.00418 35244 ft 545 kts 85°
2026-05-05 05:19 33.25040 -134.91392 35243 ft 545 kts 85°
2026-05-05 05:19 33.25297 -134.82339 35243 ft 545 kts 85°
2026-05-05 05:20 33.25548 -134.73291 35238 ft 545 kts 85°
2026-05-05 05:20 33.25792 -134.64220 35239 ft 545 kts 85°
2026-05-05 05:21 33.26029 -134.55190 35234 ft 546 kts 85°
2026-05-05 05:21 33.26260 -134.46159 35232 ft 546 kts 84°
2026-05-05 05:22 33.26485 -134.37055 35235 ft 546 kts 84°
2026-05-05 05:22 33.26703 -134.27989 35237 ft 546 kts 84°
2026-05-05 05:23 33.26914 -134.18963 35222 ft 546 kts 84°
2026-05-05 05:23 33.27119 -134.09889 35225 ft 546 kts 84°
2026-05-05 05:24 33.27318 -134.00820 35224 ft 546 kts 84°
2026-05-05 05:24 33.27510 -133.91714 35222 ft 547 kts 84°
2026-05-05 05:25 33.27695 -133.82679 35222 ft 547 kts 84°
2026-05-05 05:25 33.27874 -133.73600 35219 ft 547 kts 84°
2026-05-05 05:26 33.28054 -133.64491 35213 ft 547 kts 83°
2026-05-05 05:26 33.29001 -133.55521 35215 ft 542 kts 76°
2026-05-05 05:27 33.30222 -133.46652 35214 ft 541 kts 75°
2026-05-05 05:27 33.32130 -133.33365 35211 ft 542 kts 75°
2026-05-05 05:28 33.33377 -133.24475 35206 ft 542 kts 75°
2026-05-05 05:28 33.34603 -133.15590 35206 ft 542 kts 75°
2026-05-05 05:29 33.35825 -133.06667 35202 ft 543 kts 75°
2026-05-05 05:29 33.37037 -132.97770 35203 ft 543 kts 75°
2026-05-05 05:30 33.38250 -132.88824 35195 ft 544 kts 75°
2026-05-05 05:30 33.39451 -132.79917 35201 ft 545 kts 75°
2026-05-05 05:31 33.40658 -132.70910 35196 ft 545 kts 75°
2026-05-05 05:31 33.41849 -132.61984 35194 ft 546 kts 75°
2026-05-05 05:32 33.43038 -132.53017 35192 ft 546 kts 75°
2026-05-05 05:32 33.44223 -132.44024 35193 ft 546 kts 75°
2026-05-05 05:33 33.45398 -132.35066 35192 ft 547 kts 74°
2026-05-05 05:33 33.46574 -132.26037 35188 ft 547 kts 74°
2026-05-05 05:34 33.47739 -132.17044 35188 ft 547 kts 74°
2026-05-05 05:34 33.48896 -132.08058 35188 ft 547 kts 74°
2026-05-05 05:35 33.50051 -131.99032 35182 ft 547 kts 74°
2026-05-05 05:35 33.51190 -131.90081 35183 ft 547 kts 74°
2026-05-05 05:36 33.52337 -131.81018 35178 ft 547 kts 74°
2026-05-05 05:36 33.53465 -131.72047 35176 ft 547 kts 74°
2026-05-05 05:37 33.54596 -131.63000 35178 ft 547 kts 74°
2026-05-05 05:37 33.55719 -131.53968 35175 ft 547 kts 74°
2026-05-05 05:38 33.56828 -131.44981 35176 ft 546 kts 74°
2026-05-05 05:38 33.57934 -131.35973 35172 ft 546 kts 74°
2026-05-05 05:39 33.59029 -131.26999 35171 ft 545 kts 75°
2026-05-05 05:39 33.60117 -131.18022 35160 ft 544 kts 75°
2026-05-05 05:40 33.61198 -131.09057 35168 ft 543 kts 75°
2026-05-05 05:40 33.62272 -131.00092 35166 ft 541 kts 75°
2026-05-05 05:41 33.63340 -130.91121 35165 ft 540 kts 76°
2026-05-05 05:41 33.64390 -130.82230 35160 ft 539 kts 76°
2026-05-05 05:42 33.65438 -130.73314 35159 ft 538 kts 76°
2026-05-05 05:42 33.66470 -130.64475 35161 ft 537 kts 76°
2026-05-05 05:43 33.67497 -130.55618 35161 ft 536 kts 76°
2026-05-05 05:43 33.68518 -130.46764 35153 ft 535 kts 77°
2026-05-05 05:44 33.69530 -130.37921 35155 ft 534 kts 77°
2026-05-05 05:44 33.70534 -130.29096 35153 ft 533 kts 77°
2026-05-05 05:45 33.71534 -130.20254 35156 ft 533 kts 77°
2026-05-05 05:45 33.72357 -130.12933 35147 ft 532 kts 77°
2026-05-05 05:46 33.73342 -130.04113 35147 ft 531 kts 77°
2026-05-05 05:46 33.74315 -129.95338 35151 ft 530 kts 77°
2026-05-05 05:47 33.75283 -129.86562 35148 ft 530 kts 77°
2026-05-05 05:47 33.76244 -129.77786 35144 ft 529 kts 77°
2026-05-05 05:48 33.77200 -129.68993 35147 ft 529 kts 78°
2026-05-05 05:48 33.78144 -129.60259 35147 ft 529 kts 78°
2026-05-05 05:49 33.79083 -129.51507 35144 ft 528 kts 78°
2026-05-05 05:49 33.80018 -129.42735 35138 ft 527 kts 78°
2026-05-05 05:50 33.80944 -129.33987 35140 ft 527 kts 78°
2026-05-05 05:50 33.81862 -129.25244 35140 ft 526 kts 78°
2026-05-05 05:51 33.82769 -129.16556 35143 ft 525 kts 78°
2026-05-05 05:51 33.83667 -129.07903 35138 ft 524 kts 78°
2026-05-05 05:52 33.84564 -128.99188 35135 ft 523 kts 78°
2026-05-05 05:52 33.85453 -128.90491 35129 ft 523 kts 78°
2026-05-05 05:53 33.86331 -128.81838 35132 ft 522 kts 79°
2026-05-05 05:53 33.87176 -128.73148 35130 ft 522 kts 79°
2026-05-05 05:54 33.87949 -128.64477 35125 ft 521 kts 80°
2026-05-05 05:54 33.88701 -128.55886 35124 ft 521 kts 80°
2026-05-05 05:55 33.89462 -128.47205 35120 ft 520 kts 80°
2026-05-05 05:55 33.90219 -128.38548 35123 ft 520 kts 80°
2026-05-05 05:56 33.90976 -128.29843 35124 ft 520 kts 80°
2026-05-05 05:56 33.91723 -128.21181 35121 ft 520 kts 80°
2026-05-05 05:57 33.92463 -128.12525 35117 ft 520 kts 80°
2026-05-05 05:57 33.93197 -128.03864 35118 ft 520 kts 80°
2026-05-05 05:58 33.93926 -127.95193 35108 ft 520 kts 80°
2026-05-05 05:58 33.94646 -127.86551 35114 ft 520 kts 80°
2026-05-05 05:59 33.95364 -127.77853 35118 ft 520 kts 80°
2026-05-05 05:59 33.96070 -127.69235 35110 ft 519 kts 80°
2026-05-05 06:00 33.96775 -127.60549 35112 ft 519 kts 80°
2026-05-05 06:00 33.97470 -127.51914 35112 ft 519 kts 80°
2026-05-05 06:01 33.98162 -127.43241 35111 ft 518 kts 80°
2026-05-05 06:01 33.98845 -127.34596 35110 ft 519 kts 80°
2026-05-05 06:02 33.99523 -127.25943 35109 ft 519 kts 80°
2026-05-05 06:02 34.00191 -127.17348 35103 ft 519 kts 80°
2026-05-05 06:03 34.00856 -127.08693 35107 ft 518 kts 80°
2026-05-05 06:03 34.01518 -127.00008 35105 ft 518 kts 81°
2026-05-05 06:04 34.02169 -126.91386 35104 ft 518 kts 81°
2026-05-05 06:04 34.02812 -126.82793 35111 ft 517 kts 81°
2026-05-05 06:05 34.03455 -126.74105 35102 ft 517 kts 81°
2026-05-05 06:05 34.04087 -126.65481 35100 ft 516 kts 81°
2026-05-05 06:06 34.04709 -126.56919 35100 ft 515 kts 81°
2026-05-05 06:06 34.05329 -126.48304 35097 ft 515 kts 81°
2026-05-05 06:07 34.05943 -126.39679 35095 ft 513 kts 81°
2026-05-05 06:07 34.06544 -126.31155 35095 ft 512 kts 81°
2026-05-05 06:08 34.07142 -126.22585 35094 ft 510 kts 81°
2026-05-05 06:08 34.07731 -126.14067 35092 ft 510 kts 81°
2026-05-05 06:09 34.08314 -126.05549 35090 ft 509 kts 81°
2026-05-05 06:09 34.08887 -125.97091 35091 ft 509 kts 81°
2026-05-05 06:10 34.09458 -125.88569 35092 ft 508 kts 81°
2026-05-05 06:10 34.10021 -125.80074 35091 ft 508 kts 81°
2026-05-05 06:11 34.10580 -125.71555 35089 ft 508 kts 81°
2026-05-05 06:11 34.11130 -125.63089 35091 ft 508 kts 81°
2026-05-05 06:12 34.11678 -125.54547 35094 ft 509 kts 81°
2026-05-05 06:12 34.12218 -125.46045 35090 ft 510 kts 81°
2026-05-05 06:13 34.12756 -125.37514 35403 ft 511 kts 81°
2026-05-05 06:13 34.13023 -125.33247 35651 ft 512 kts 82°
2026-05-05 06:13 34.13291 -125.28935 35878 ft 513 kts 82°
2026-05-05 06:14 34.13555 -125.24668 36092 ft 514 kts 82°
2026-05-05 06:14 34.13819 -125.20365 36287 ft 515 kts 82°
2026-05-05 06:14 34.14081 -125.16064 36483 ft 517 kts 82°
2026-05-05 06:14 34.14346 -125.11698 36693 ft 518 kts 83°
2026-05-05 06:15 34.14605 -125.07388 36908 ft 518 kts 83°
2026-05-05 06:15 34.14865 -125.03041 37069 ft 520 kts 83°
2026-05-05 06:15 34.15382 -124.94316 37088 ft 520 kts 83°
2026-05-05 06:16 34.15890 -124.85631 37086 ft 520 kts 83°
2026-05-05 06:16 34.16395 -124.76907 37088 ft 520 kts 83°
2026-05-05 06:17 34.16909 -124.68195 37089 ft 520 kts 83°
2026-05-05 06:17 34.17431 -124.59470 37086 ft 520 kts 83°
2026-05-05 06:18 34.17927 -124.50765 37086 ft 521 kts 84°
2026-05-05 06:18 34.18402 -124.42085 37084 ft 521 kts 84°
2026-05-05 06:19 34.18865 -124.33491 37077 ft 496 kts 84°
2026-05-05 06:19 34.19081 -124.29423 37078 ft 481 kts 84°
2026-05-05 06:19 34.19294 -124.25407 37080 ft 470 kts 84°
2026-05-05 06:20 34.19714 -124.17579 37085 ft 469 kts 84°
2026-05-05 06:20 34.20143 -124.09552 37087 ft 486 kts 84°
2026-05-05 06:21 34.20572 -124.01339 37087 ft 501 kts 84°
2026-05-05 06:21 34.21003 -123.92815 37085 ft 510 kts 84°
2026-05-05 06:22 34.21431 -123.84238 37085 ft 510 kts 85°
2026-05-05 06:22 34.21850 -123.75705 37080 ft 510 kts 85°
2026-05-05 06:23 34.22267 -123.67135 37078 ft 510 kts 85°
2026-05-05 06:23 34.22680 -123.58601 37081 ft 510 kts 85°
2026-05-05 06:24 34.23091 -123.50043 37079 ft 510 kts 85°
2026-05-05 06:24 34.23487 -123.41541 37084 ft 510 kts 85°
2026-05-05 06:25 34.23879 -123.32965 37081 ft 511 kts 85°
2026-05-05 06:25 34.24268 -123.24387 37085 ft 511 kts 85°
2026-05-05 06:26 34.24650 -123.15841 37085 ft 511 kts 86°
2026-05-05 06:26 34.24817 -123.07225 37083 ft 512 kts 92°
2026-05-05 06:27 34.24246 -122.94332 37068 ft 513 kts 93°
2026-05-05 06:28 34.23848 -122.85696 37073 ft 514 kts 93°
2026-05-05 06:28 34.23452 -122.77101 37087 ft 514 kts 93°
2026-05-05 06:29 34.23051 -122.68436 37072 ft 515 kts 93°
2026-05-05 06:29 34.22668 -122.59838 37074 ft 515 kts 92°
2026-05-05 06:30 34.22286 -122.51179 37076 ft 515 kts 92°
2026-05-05 06:30 34.21880 -122.42536 37071 ft 515 kts 93°
2026-05-05 06:31 34.21462 -122.33866 37070 ft 516 kts 93°
2026-05-05 06:31 34.21038 -122.25262 37070 ft 516 kts 93°
2026-05-05 06:32 34.20602 -122.16604 37069 ft 517 kts 93°
2026-05-05 06:32 34.20160 -122.07934 37077 ft 517 kts 93°
2026-05-05 06:33 34.19708 -121.99247 37070 ft 518 kts 94°
2026-05-05 06:33 34.19253 -121.90622 37067 ft 518 kts 94°
2026-05-05 06:34 34.18781 -121.81929 37070 ft 518 kts 94°
2026-05-05 06:34 34.18308 -121.73215 37065 ft 519 kts 94°
2026-05-05 06:35 34.17915 -121.65985 37069 ft 519 kts 94°
2026-05-05 06:35 34.17434 -121.57269 37063 ft 520 kts 94°
2026-05-05 06:36 34.16865 -121.47113 37064 ft 520 kts 95°
2026-05-05 06:36 34.16453 -121.39840 37072 ft 521 kts 95°
2026-05-05 06:37 34.15950 -121.31068 37071 ft 522 kts 95°
2026-05-05 06:37 34.15444 -121.22345 37069 ft 522 kts 95°
2026-05-05 06:38 34.14932 -121.13643 37068 ft 523 kts 95°
2026-05-05 06:38 34.14410 -121.04884 37048 ft 523 kts 95°
2026-05-05 06:39 34.14110 -120.96150 37068 ft 525 kts 88°
2026-05-05 06:39 34.14398 -120.91727 36729 ft 519 kts 86°
2026-05-05 06:39 34.14748 -120.87400 35812 ft 524 kts 85°
2026-05-05 06:39 34.15118 -120.82967 34797 ft 530 kts 85°
2026-05-05 06:40 34.15494 -120.78541 33914 ft 531 kts 85°
2026-05-05 06:40 34.15861 -120.74158 32872 ft 531 kts 85°
2026-05-05 06:40 34.16223 -120.69733 31780 ft 531 kts 85°
2026-05-05 06:40 34.16583 -120.65259 30662 ft 530 kts 85°
2026-05-05 06:41 34.16935 -120.60861 29420 ft 529 kts 85°
2026-05-05 06:41 34.17287 -120.56440 28418 ft 525 kts 85°
2026-05-05 06:41 34.17631 -120.52130 27838 ft 505 kts 85°
2026-05-05 06:41 34.17961 -120.47989 26925 ft 480 kts 85°
2026-05-05 06:42 34.18273 -120.44053 25678 ft 467 kts 85°
2026-05-05 06:42 34.18576 -120.40201 24430 ft 456 kts 85°
2026-05-05 06:42 34.18868 -120.36447 23128 ft 447 kts 85°
2026-05-05 06:42 34.19148 -120.32751 21739 ft 437 kts 86°
2026-05-05 06:43 34.19337 -120.29131 20594 ft 425 kts 88°
2026-05-05 06:43 34.19464 -120.25693 20217 ft 403 kts 88°
2026-05-05 06:43 34.19586 -120.22306 19968 ft 403 kts 88°
2026-05-05 06:43 34.19709 -120.18940 19713 ft 401 kts 88°
2026-05-05 06:44 34.19832 -120.15579 19467 ft 398 kts 88°
2026-05-05 06:44 34.19955 -120.12255 19241 ft 396 kts 88°
2026-05-05 06:44 34.20079 -120.08919 19101 ft 395 kts 88°
2026-05-05 06:44 34.20200 -120.05644 18958 ft 385 kts 88°
2026-05-05 06:45 34.20321 -120.02445 18865 ft 382 kts 88°
2026-05-05 06:45 34.20443 -119.99211 18771 ft 384 kts 88°
2026-05-05 06:45 34.20494 -119.95970 18677 ft 390 kts 92°
2026-05-05 06:45 34.20450 -119.92669 18580 ft 392 kts 92°
2026-05-05 06:46 34.20402 -119.89386 18408 ft 392 kts 92°
2026-05-05 06:46 34.20343 -119.86073 18145 ft 391 kts 92°
2026-05-05 06:46 34.20278 -119.82810 17876 ft 390 kts 92°
2026-05-05 06:46 34.20207 -119.79556 17608 ft 389 kts 92°
2026-05-05 06:47 34.20132 -119.76266 17339 ft 387 kts 92°
2026-05-05 06:47 34.20062 -119.73065 17072 ft 386 kts 92°
2026-05-05 06:47 34.19990 -119.69842 16820 ft 384 kts 92°
2026-05-05 06:47 34.19910 -119.66607 16568 ft 383 kts 93°
2026-05-05 06:48 34.19828 -119.63403 16302 ft 381 kts 93°
2026-05-05 06:48 34.19746 -119.60194 16046 ft 380 kts 92°
2026-05-05 06:48 34.19666 -119.57031 15804 ft 378 kts 92°
2026-05-05 06:48 34.19585 -119.53838 15548 ft 377 kts 92°
2026-05-05 06:49 34.19504 -119.50686 15294 ft 376 kts 92°
2026-05-05 06:49 34.19423 -119.47568 15045 ft 374 kts 92°
2026-05-05 06:49 34.19341 -119.44417 14818 ft 373 kts 92°
2026-05-05 06:49 34.19258 -119.41298 14577 ft 372 kts 92°
2026-05-05 06:50 34.19176 -119.38179 14276 ft 366 kts 92°
2026-05-05 06:50 34.19102 -119.35137 13883 ft 363 kts 92°
2026-05-05 06:50 34.19042 -119.32102 13582 ft 365 kts 92°
2026-05-05 06:50 34.18987 -119.29015 13276 ft 365 kts 92°
2026-05-05 06:51 34.18939 -119.25968 12962 ft 363 kts 91°
2026-05-05 06:51 34.18893 -119.22903 12665 ft 361 kts 91°
2026-05-05 06:51 34.18846 -119.19906 12367 ft 359 kts 91°
2026-05-05 06:51 34.18798 -119.16946 12146 ft 349 kts 91°
2026-05-05 06:52 34.18750 -119.14060 11932 ft 337 kts 91°
2026-05-05 06:52 34.18702 -119.11292 11724 ft 326 kts 91°
2026-05-05 06:52 34.18654 -119.08602 11465 ft 318 kts 91°
2026-05-05 06:52 34.18395 -119.05986 11187 ft 309 kts 106°
2026-05-05 06:53 34.17623 -119.03595 10959 ft 303 kts 115°
2026-05-05 06:53 34.16728 -119.01301 10840 ft 303 kts 116°
2026-05-05 06:53 34.15810 -118.98989 10784 ft 303 kts 116°
2026-05-05 06:53 34.14904 -118.96698 10702 ft 303 kts 116°
2026-05-05 06:54 34.14007 -118.94416 10630 ft 302 kts 116°
2026-05-05 06:54 34.13102 -118.92111 10551 ft 302 kts 116°
2026-05-05 06:54 34.12208 -118.89830 10475 ft 302 kts 116°
2026-05-05 06:54 34.11310 -118.87535 10406 ft 301 kts 116°
2026-05-05 06:55 34.10422 -118.85272 10329 ft 301 kts 116°
2026-05-05 06:55 34.09521 -118.82981 10270 ft 301 kts 116°
2026-05-05 06:55 34.08631 -118.80714 10170 ft 301 kts 116°
2026-05-05 06:55 34.07731 -118.78424 10098 ft 300 kts 116°
2026-05-05 06:56 34.06840 -118.76158 10030 ft 300 kts 116°
2026-05-05 06:56 34.05951 -118.73894 9933 ft 300 kts 116°
2026-05-05 06:56 34.05058 -118.71616 9608 ft 299 kts 116°
2026-05-05 06:56 34.04175 -118.69364 9316 ft 296 kts 116°
2026-05-05 06:57 34.03317 -118.67129 9141 ft 286 kts 114°
2026-05-05 06:57 34.02816 -118.64864 8891 ft 282 kts 100°
2026-05-05 06:57 34.02555 -118.62503 8638 ft 281 kts 98°
2026-05-05 06:57 34.02339 -118.60187 8417 ft 280 kts 98°
2026-05-05 06:58 34.02127 -118.57878 8208 ft 278 kts 98°
2026-05-05 06:58 34.01913 -118.55572 7996 ft 277 kts 98°
2026-05-05 06:58 34.01697 -118.53260 7761 ft 276 kts 98°
2026-05-05 06:58 34.01482 -118.50958 7523 ft 275 kts 98°
2026-05-05 06:59 34.01270 -118.48691 7305 ft 272 kts 98°
2026-05-05 06:59 34.01073 -118.46458 7150 ft 262 kts 96°
2026-05-05 06:59 34.01194 -118.44311 6970 ft 256 kts 82°
2026-05-05 06:59 34.01544 -118.42250 6766 ft 250 kts 79°
2026-05-05 07:00 34.01922 -118.40203 6498 ft 247 kts 79°
2026-05-05 07:00 34.02291 -118.38197 6216 ft 245 kts 79°
2026-05-05 07:00 34.02634 -118.36199 6011 ft 239 kts 81°
2026-05-05 07:00 34.02882 -118.34235 5976 ft 236 kts 83°
2026-05-05 07:01 34.03099 -118.32265 6041 ft 236 kts 84°
2026-05-05 07:01 34.03305 -118.30320 6047 ft 237 kts 84°
2026-05-05 07:01 34.03523 -118.28359 5833 ft 236 kts 83°
2026-05-05 07:01 34.03745 -118.26377 5579 ft 235 kts 83°
2026-05-05 07:02 34.03958 -118.24458 5325 ft 233 kts 84°
2026-05-05 07:02 34.04167 -118.22521 5081 ft 232 kts 84°
2026-05-05 07:02 34.04373 -118.20591 4999 ft 231 kts 84°
2026-05-05 07:02 34.04576 -118.18677 4988 ft 232 kts 84°
2026-05-05 07:03 34.04782 -118.16746 4995 ft 232 kts 84°
2026-05-05 07:03 34.04993 -118.14815 4994 ft 232 kts 84°
2026-05-05 07:03 34.05203 -118.12907 4991 ft 232 kts 84°
2026-05-05 07:03 34.05415 -118.10993 4990 ft 231 kts 84°
2026-05-05 07:04 34.05630 -118.09048 4995 ft 231 kts 84°
2026-05-05 07:04 34.05841 -118.07149 4990 ft 231 kts 83°
2026-05-05 07:04 34.06058 -118.05211 4989 ft 231 kts 83°
2026-05-05 07:04 34.06273 -118.03287 4988 ft 231 kts 84°
2026-05-05 07:05 34.06484 -118.01376 4995 ft 231 kts 84°
2026-05-05 07:05 34.06694 -117.99452 4991 ft 231 kts 84°
2026-05-05 07:05 34.06909 -117.97516 4993 ft 232 kts 83°
2026-05-05 07:05 34.07125 -117.95587 4988 ft 232 kts 83°
2026-05-05 07:06 34.07340 -117.93673 4995 ft 232 kts 83°
2026-05-05 07:06 34.07555 -117.91751 4991 ft 232 kts 83°
2026-05-05 07:06 34.07769 -117.89826 4999 ft 232 kts 83°
2026-05-05 07:06 34.07983 -117.87891 5002 ft 232 kts 83°
2026-05-05 07:07 34.08195 -117.85955 4996 ft 232 kts 83°
2026-05-05 07:07 34.08404 -117.84032 5007 ft 232 kts 83°
2026-05-05 07:07 34.08610 -117.82113 5003 ft 232 kts 83°
2026-05-05 07:07 34.08817 -117.80187 5005 ft 232 kts 83°
2026-05-05 07:08 34.09027 -117.78254 5001 ft 232 kts 83°
2026-05-05 07:08 34.09237 -117.76314 5008 ft 233 kts 83°
2026-05-05 07:08 34.09447 -117.74395 5005 ft 233 kts 83°
2026-05-05 07:08 34.09660 -117.72443 5001 ft 232 kts 83°
2026-05-05 07:09 34.09869 -117.70517 5005 ft 232 kts 83°
2026-05-05 07:09 34.10079 -117.68586 4999 ft 232 kts 83°
2026-05-05 07:09 34.10288 -117.66646 4998 ft 232 kts 84°
2026-05-05 07:09 34.10494 -117.64723 4999 ft 232 kts 84°
2026-05-05 07:10 34.10700 -117.62788 4998 ft 232 kts 84°
2026-05-05 07:10 34.10908 -117.60857 5006 ft 233 kts 83°
2026-05-05 07:10 34.11114 -117.58930 4998 ft 233 kts 84°
2026-05-05 07:10 34.11319 -117.57001 4998 ft 233 kts 84°
2026-05-05 07:11 34.11526 -117.55048 5003 ft 233 kts 84°
2026-05-05 07:11 34.11731 -117.53115 5000 ft 232 kts 84°
2026-05-05 07:11 34.11938 -117.51169 4997 ft 232 kts 84°
2026-05-05 07:11 34.12141 -117.49245 5002 ft 232 kts 84°
2026-05-05 07:12 34.12346 -117.47306 5002 ft 233 kts 84°
2026-05-05 07:12 34.12550 -117.45377 4991 ft 233 kts 84°
2026-05-05 07:12 34.12757 -117.43418 4990 ft 233 kts 84°
2026-05-05 07:12 34.12961 -117.41498 5002 ft 233 kts 84°
2026-05-05 07:13 34.13165 -117.39570 5001 ft 234 kts 84°
2026-05-05 07:13 34.13367 -117.37633 5001 ft 234 kts 84°
2026-05-05 07:13 34.13567 -117.35699 5011 ft 233 kts 84°
2026-05-05 07:13 34.13558 -117.33741 5025 ft 241 kts 102°
2026-05-05 07:14 34.12844 -117.31795 5028 ft 261 kts 131°
2026-05-05 07:14 34.11367 -117.30587 5014 ft 263 kts 164°
2026-05-05 07:14 34.09570 -117.30543 5004 ft 260 kts 197°
2026-05-05 07:14 34.08071 -117.31692 5010 ft 259 kts 230°
2026-05-05 07:15 34.07355 -117.33640 5007 ft 261 kts 262°
2026-05-05 07:15 34.07439 -117.35857 5004 ft 262 kts 275°
2026-05-05 07:15 34.07612 -117.38024 4994 ft 262 kts 273°
2026-05-05 07:15 34.07691 -117.40219 4994 ft 261 kts 270°
2026-05-05 07:16 34.07680 -117.42392 4996 ft 261 kts 268°
2026-05-05 07:16 34.07608 -117.44614 4996 ft 261 kts 265°
2026-05-05 07:16 34.07493 -117.46779 4988 ft 261 kts 264°
2026-05-05 07:16 34.07335 -117.48950 4992 ft 260 kts 262°
2026-05-05 07:17 34.06889 -117.51067 4991 ft 260 kts 250°
2026-05-05 07:17 34.06206 -117.53097 4988 ft 259 kts 246°
2026-05-05 07:17 34.05492 -117.55071 4992 ft 260 kts 246°
2026-05-05 07:17 34.04772 -117.57055 4997 ft 260 kts 246°
2026-05-05 07:18 34.04045 -117.59061 5000 ft 260 kts 246°
2026-05-05 07:18 34.03329 -117.61043 4999 ft 260 kts 246°
2026-05-05 07:18 34.02606 -117.63046 4999 ft 260 kts 246°
2026-05-05 07:18 34.01889 -117.65033 5018 ft 260 kts 246°
2026-05-05 07:19 34.01160 -117.67065 5018 ft 260 kts 247°
2026-05-05 07:19 34.00625 -117.69127 5015 ft 261 kts 258°
2026-05-05 07:19 34.00359 -117.71251 5014 ft 252 kts 262°
2026-05-05 07:19 34.00161 -117.73294 5008 ft 235 kts 262°
2026-05-05 07:20 33.99983 -117.75172 5007 ft 221 kts 262°
2026-05-05 07:20 33.99807 -117.77001 5011 ft 217 kts 262°
2026-05-05 07:20 33.99632 -117.78793 5011 ft 214 kts 262°
2026-05-05 07:20 33.99466 -117.80520 5007 ft 197 kts 262°
2026-05-05 07:21 33.99315 -117.82095 5025 ft 186 kts 262°
2026-05-05 07:21 33.99164 -117.83642 5013 ft 185 kts 262°
2026-05-05 07:21 33.99014 -117.85186 5002 ft 186 kts 262°
2026-05-05 07:21 33.98862 -117.86743 5001 ft 186 kts 261°
2026-05-05 07:22 33.98711 -117.88278 5001 ft 186 kts 262°
2026-05-05 07:22 33.98560 -117.89823 5003 ft 186 kts 261°
2026-05-05 07:22 33.98409 -117.91370 5001 ft 186 kts 262°
2026-05-05 07:22 33.98258 -117.92924 4999 ft 186 kts 261°
2026-05-05 07:23 33.98106 -117.94461 5010 ft 186 kts 261°
2026-05-05 07:23 33.97954 -117.96018 5005 ft 186 kts 261°
2026-05-05 07:23 33.97802 -117.97557 5001 ft 185 kts 261°
2026-05-05 07:23 33.97649 -117.99083 5006 ft 185 kts 261°
2026-05-05 07:24 33.97494 -118.00630 5002 ft 185 kts 261°
2026-05-05 07:24 33.97353 -118.02172 5001 ft 186 kts 263°
2026-05-05 07:24 33.97242 -118.03713 4999 ft 186 kts 263°
2026-05-05 07:24 33.97104 -118.05265 4997 ft 186 kts 262°
2026-05-05 07:25 33.96956 -118.06801 5004 ft 186 kts 262°
2026-05-05 07:25 33.96800 -118.08346 5005 ft 186 kts 262°
2026-05-05 07:25 33.96640 -118.09876 4967 ft 180 kts 261°
2026-05-05 07:25 33.96533 -118.10859 4854 ft 170 kts 261°
2026-05-05 07:26 33.96387 -118.12220 4618 ft 160 kts 261°
2026-05-05 07:26 33.96255 -118.13511 4336 ft 152 kts 262°
2026-05-05 07:26 33.96088 -118.15159 3971 ft 146 kts 262°
2026-05-05 07:26 33.96006 -118.15971 3825 ft 146 kts 262°
2026-05-05 07:27 33.95884 -118.17179 3619 ft 146 kts 262°
2026-05-05 07:27 33.95760 -118.18394 3427 ft 146 kts 263°
2026-05-05 07:27 33.95637 -118.19604 3222 ft 145 kts 263°
2026-05-05 07:27 33.95513 -118.20820 3023 ft 146 kts 263°
2026-05-05 07:28 33.95391 -118.22022 2832 ft 145 kts 263°
2026-05-05 07:28 33.95268 -118.23225 2632 ft 145 kts 263°
2026-05-05 07:28 33.95104 -118.24832 2379 ft 145 kts 263°
2026-05-05 07:28 33.95023 -118.25639 2229 ft 145 kts 263°
2026-05-05 07:29 33.94902 -118.26829 2046 ft 144 kts 263°
2026-05-05 07:29 33.94779 -118.28029 1844 ft 144 kts 263°
2026-05-05 07:29 33.94657 -118.29225 1656 ft 144 kts 264°
2026-05-05 07:29 33.94536 -118.30422 1455 ft 144 kts 263°
2026-05-05 07:30 33.94416 -118.31599 1258 ft 143 kts 263°
2026-05-05 07:30 33.94183 -118.33980 912 ft 145 kts 264°
2026-05-05 07:30 33.94068 -118.35172 668 ft 141 kts 264°
2026-05-05 07:31 33.93944 -118.36349 508 ft 143 kts 263°
2026-05-05 07:31 33.93818 -118.37537 261 ft 140 kts 263°
2026-05-05 07:31 33.93702 -118.38680 136 ft 134 kts 262°
2026-05-05 07:31 33.93589 -118.39708 117 ft 112 kts 262°
2026-05-05 07:32 33.93529 -118.40327 116 ft 32 kts 264°
2026-05-05 07:32 33.93527 -118.40414 116 ft 7 kts 282°
2026-05-05 07:32 33.93555 -118.40521 116 ft 20 kts 291°
2026-05-05 07:32 33.93594 -118.40660 111 ft 0 kts 274°
2026-05-05 07:34 33.93595 -118.40686 111 ft 8 kts 273°
2026-05-05 07:34 33.93596 -118.40786 112 ft 15 kts 271°
2026-05-05 07:34 33.93610 -118.40853 112 ft 0 kts 306°
2026-05-05 07:35 33.93642 -118.40879 110 ft 9 kts 338°
2026-05-05 07:35 33.93705 -118.40900 111 ft 11 kts 349°
2026-05-05 07:35 33.93748 -118.40908 110 ft 6 kts 354°
2026-05-05 07:36 33.93782 -118.40870 107 ft 9 kts 56°
2026-05-05 07:36 33.93798 -118.40783 109 ft 12 kts 81°
2026-05-05 07:36 33.93809 -118.40672 109 ft 15 kts 83°
2026-05-05 07:36 33.93822 -118.40538 109 ft 16 kts 83°
2026-05-05 07:37 33.93835 -118.40395 110 ft 18 kts 84°
2026-05-05 07:37 33.93849 -118.40316 110 ft 5 kts 60°
2026-05-05 07:37 33.93920 -118.40294 105 ft 18 kts 356°
2026-05-05 07:37 33.94041 -118.40314 102 ft 9 kts 352°
2026-05-05 07:38 33.94052 -118.40315 103 ft 4 kts 352°
2026-05-05 07:38 33.94091 -118.40339 102 ft 5 kts 294°
2026-05-05 07:38 33.94093 -118.40380 104 ft 0 kts 264°
2026-05-05 07:39 33.94093 -118.40395 103 ft 0 kts 259°
2026-05-05 07:40 33.94164 -118.40741 101 ft 0 kts 84°